Time,TemperatureF,DewpointF,PressureIn,WindDirection,WindDirectionDegrees,WindSpeedMPH,WindSpeedGustMPH,Humidity,HourlyPrecipIn,Conditions,Clouds,dailyrainin,SoftwareType,DateUTC
2013-02-27 00:00:00,40.1,37.5,29.57,SSW,192,7.5,10.5,90,0.04,,,0.48,VWS V14.01,2013-02-27 05:00:00,
2013-02-27 00:01:00,40.1,37.5,29.57,WSW,243,6.0,10.5,90,0.04,,,0.00,VWS V14.01,2013-02-27 05:01:00,
2013-02-27 00:02:00,40.0,37.4,29.57,WSW,245,7.5,10.5,90,0.04,,,0.00,VWS V14.01,2013-02-27 05:02:00,
2013-02-27 00:03:00,40.0,37.4,29.57,WSW,237,6.0,7.5,90,0.04,,,0.00,VWS V14.01,2013-02-27 05:03:00,
2013-02-27 00:04:00,40.0,37.4,29.57,WSW,243,6.0,12.0,90,0.04,,,0.00,VWS V14.01,2013-02-27 05:04:00,
2013-02-27 00:05:00,40.0,37.4,29.57,WSW,240,7.5,9.0,90,0.04,,,0.00,VWS V14.01,2013-02-27 05:05:00,
2013-02-27 00:06:00,40.0,37.4,29.57,WSW,238,9.0,9.0,90,0.04,,,0.00,VWS V14.01,2013-02-27 05:06:00,
2013-02-27 00:07:00,40.0,37.4,29.57,WNW,293,13.5,18.0,90,0.04,,,0.00,VWS V14.01,2013-02-27 05:07:00,
2013-02-27 00:08:00,40.1,37.5,29.57,WSW,243,10.5,13.5,90,0.04,,,0.00,VWS V14.01,2013-02-27 05:08:00,
2013-02-27 00:09:00,40.0,37.4,29.57,WSW,249,10.5,12.0,90,0.04,,,0.00,VWS V14.01,2013-02-27 05:09:00,
2013-02-27 00:10:00,40.1,37.5,29.57,WSW,246,7.5,10.5,90,0.04,,,0.00,VWS V14.01,2013-02-27 05:10:00,
2013-02-27 00:11:00,40.0,37.4,29.57,WSW,254,7.5,10.5,90,0.04,,,0.00,VWS V14.01,2013-02-27 05:11:00,
2013-02-27 00:12:00,40.0,37.4,29.57,WSW,247,10.5,10.5,90,0.04,,,0.00,VWS V14.01,2013-02-27 05:12:00,
2013-02-27 00:13:00,40.0,37.4,29.57,WSW,258,9.0,10.5,90,0.03,,,0.00,VWS V14.01,2013-02-27 05:13:00,
2013-02-27 00:14:00,40.0,37.4,29.57,SW,234,12.0,12.0,90,0.03,,,0.00,VWS V14.01,2013-02-27 05:14:00,
2013-02-27 00:15:00,40.0,37.4,29.57,WSW,246,6.0,7.5,90,0.03,,,0.00,VWS V14.01,2013-02-27 05:15:00,
2013-02-27 00:16:00,40.0,37.4,29.57,WSW,243,9.0,16.5,90,0.03,,,0.00,VWS V14.01,2013-02-27 05:16:00,
2013-02-27 00:17:00,40.1,37.5,29.57,SW,236,6.0,10.5,90,0.03,,,0.00,VWS V14.01,2013-02-27 05:17:00,
2013-02-27 00:18:00,40.1,37.5,29.57,SW,215,6.0,13.5,90,0.03,,,0.00,VWS V14.01,2013-02-27 05:18:00,
2013-02-27 00:19:00,40.1,37.5,29.57,WSW,254,13.5,18.0,90,0.03,,,0.00,VWS V14.01,2013-02-27 05:19:00,
2013-02-27 00:20:00,40.1,37.5,29.57,WSW,257,18.0,18.0,90,0.03,,,0.00,VWS V14.01,2013-02-27 05:20:00,
2013-02-27 00:21:00,40.2,37.6,29.57,WSW,237,13.5,18.0,90,0.03,,,0.00,VWS V14.01,2013-02-27 05:21:00,
2013-02-27 00:22:00,40.2,37.6,29.57,SW,223,7.5,19.5,90,0.03,,,0.00,VWS V14.01,2013-02-27 05:22:00,
2013-02-27 00:23:00,40.2,37.3,29.57,WSW,252,9.0,13.5,89,0.03,,,0.00,VWS V14.01,2013-02-27 05:23:00,
2013-02-27 00:24:00,40.2,37.3,29.57,WSW,243,13.5,16.5,89,0.03,,,0.00,VWS V14.01,2013-02-27 05:24:00,
2013-02-27 00:25:00,40.3,37.4,29.57,WSW,255,15.0,15.0,89,0.03,,,0.00,VWS V14.01,2013-02-27 05:25:00,
2013-02-27 00:26:00,40.3,37.4,29.57,SW,215,16.5,21.0,89,0.03,,,0.00,VWS V14.01,2013-02-27 05:26:00,
2013-02-27 00:27:00,40.3,37.4,29.57,SSW,210,15.0,19.5,89,0.03,,,0.00,VWS V14.01,2013-02-27 05:27:00,
2013-02-27 00:28:00,40.3,37.4,29.57,SW,231,18.0,24.0,89,0.03,,,0.00,VWS V14.01,2013-02-27 05:28:00,
2013-02-27 00:29:00,40.3,37.4,29.57,SW,236,13.5,21.0,89,0.01,,,0.00,VWS V14.01,2013-02-27 05:29:00,
2013-02-27 00:30:00,40.3,37.1,29.57,WSW,246,15.0,15.0,88,0.01,,,0.00,VWS V14.01,2013-02-27 05:30:00,
2013-02-27 00:31:00,40.4,37.2,29.57,West,259,9.0,21.0,88,0.01,,,0.00,VWS V14.01,2013-02-27 05:31:00,
2013-02-27 00:32:00,40.4,37.2,29.57,WSW,249,9.0,13.5,88,0.01,,,0.00,VWS V14.01,2013-02-27 05:32:00,
2013-02-27 00:33:00,40.4,37.2,29.57,WSW,244,13.5,15.0,88,0.01,,,0.00,VWS V14.01,2013-02-27 05:33:00,
2013-02-27 00:34:00,40.4,37.2,29.57,SW,215,7.5,18.0,88,0.01,,,0.00,VWS V14.01,2013-02-27 05:34:00,
2013-02-27 00:35:00,40.4,37.2,29.57,West,262,12.0,12.0,88,0.01,,,0.00,VWS V14.01,2013-02-27 05:35:00,
2013-02-27 00:36:00,40.4,37.2,29.57,WSW,255,9.0,18.0,88,0.01,,,0.00,VWS V14.01,2013-02-27 05:36:00,
2013-02-27 00:37:00,40.4,37.2,29.57,WSW,244,16.5,18.0,88,0.01,,,0.00,VWS V14.01,2013-02-27 05:37:00,
2013-02-27 00:38:00,40.4,37.2,29.57,WSW,249,18.0,18.0,88,0.01,,,0.00,VWS V14.01,2013-02-27 05:38:00,
2013-02-27 00:39:00,40.4,37.2,29.57,West,272,16.5,19.5,88,0.01,,,0.00,VWS V14.01,2013-02-27 05:39:00,
2013-02-27 00:40:00,40.4,37.2,29.57,WSW,253,12.0,16.5,88,0.01,,,0.00,VWS V14.01,2013-02-27 05:40:00,
2013-02-27 00:41:00,40.4,37.2,29.57,SW,231,21.0,21.0,88,0.01,,,0.00,VWS V14.01,2013-02-27 05:41:00,
2013-02-27 00:42:00,40.4,37.2,29.57,West,260,15.0,22.5,88,0.01,,,0.00,VWS V14.01,2013-02-27 05:42:00,
2013-02-27 00:43:00,40.4,37.2,29.58,WSW,251,13.5,22.5,88,0.01,,,0.00,VWS V14.01,2013-02-27 05:43:00,
2013-02-27 00:44:00,40.4,37.2,29.58,WSW,248,12.0,16.5,88,0.01,,,0.00,VWS V14.01,2013-02-27 05:44:00,
2013-02-27 00:45:00,40.4,37.2,29.58,WSW,248,10.5,10.5,88,0.01,,,0.00,VWS V14.01,2013-02-27 05:45:00,
2013-02-27 00:46:00,40.3,37.1,29.58,SW,215,10.5,13.5,88,0.01,,,0.00,VWS V14.01,2013-02-27 05:46:00,
2013-02-27 00:47:00,40.3,37.1,29.58,West,264,16.5,22.5,88,0.02,,,0.01,VWS V14.01,2013-02-27 05:47:00,
2013-02-27 00:48:00,40.3,37.1,29.58,WSW,252,18.0,21.0,88,0.02,,,0.01,VWS V14.01,2013-02-27 05:48:00,
2013-02-27 00:49:00,40.3,37.1,29.58,WSW,246,24.0,24.0,88,0.02,,,0.01,VWS V14.01,2013-02-27 05:49:00,
2013-02-27 00:50:00,40.2,37.0,29.58,SW,215,7.5,24.0,88,0.02,,,0.01,VWS V14.01,2013-02-27 05:50:00,
2013-02-27 00:51:00,40.2,37.0,29.58,WSW,248,15.0,18.0,88,0.02,,,0.01,VWS V14.01,2013-02-27 05:51:00,
2013-02-27 00:52:00,40.2,37.0,29.58,WSW,247,19.5,19.5,88,0.02,,,0.01,VWS V14.01,2013-02-27 05:52:00,
2013-02-27 00:53:00,40.1,36.9,29.58,WSW,239,16.5,19.5,88,0.02,,,0.01,VWS V14.01,2013-02-27 05:53:00,
2013-02-27 00:54:00,40.1,36.9,29.58,WSW,246,10.5,19.5,88,0.02,,,0.01,VWS V14.01,2013-02-27 05:54:00,
2013-02-27 00:55:00,40.1,37.2,29.58,WSW,243,13.5,16.5,89,0.02,,,0.01,VWS V14.01,2013-02-27 05:55:00,
2013-02-27 00:56:00,40.1,37.2,29.58,WSW,240,18.0,19.5,89,0.02,,,0.01,VWS V14.01,2013-02-27 05:56:00,
2013-02-27 00:57:00,40.1,37.2,29.58,SW,229,15.0,19.5,89,0.02,,,0.01,VWS V14.01,2013-02-27 05:57:00,
2013-02-27 00:58:00,40.0,37.1,29.58,WSW,247,21.0,21.0,89,0.02,,,0.01,VWS V14.01,2013-02-27 05:58:00,
2013-02-27 00:59:00,40.0,37.1,29.58,WSW,253,12.0,21.0,89,0.01,,,0.01,VWS V14.01,2013-02-27 05:59:00,
2013-02-27 01:00:00,40.0,37.1,29.58,NW,310,18.0,18.0,89,0.01,,,0.01,VWS V14.01,2013-02-27 06:00:00,
2013-02-27 01:01:00,40.0,37.1,29.58,WSW,246,22.5,30.0,89,0.01,,,0.01,VWS V14.01,2013-02-27 06:01:00,
2013-02-27 01:02:00,39.9,36.7,29.58,WSW,239,21.0,25.5,88,0.01,,,0.01,VWS V14.01,2013-02-27 06:02:00,
2013-02-27 01:03:00,39.9,36.7,29.58,WSW,245,24.0,25.5,88,0.01,,,0.01,VWS V14.01,2013-02-27 06:03:00,
2013-02-27 01:04:00,39.9,36.7,29.58,WSW,243,12.0,27.0,88,0.01,,,0.01,VWS V14.01,2013-02-27 06:04:00,
2013-02-27 01:05:00,39.8,36.6,29.59,WSW,250,24.0,25.5,88,0.01,,,0.01,VWS V14.01,2013-02-27 06:05:00,
2013-02-27 01:06:00,39.8,36.6,29.59,WSW,255,12.0,24.0,88,0.01,,,0.01,VWS V14.01,2013-02-27 06:06:00,
2013-02-27 01:07:00,39.7,36.5,29.59,WSW,240,9.0,13.5,88,0.01,,,0.01,VWS V14.01,2013-02-27 06:07:00,
2013-02-27 01:08:00,39.7,36.5,29.59,SW,231,15.0,15.0,88,0.01,,,0.01,VWS V14.01,2013-02-27 06:08:00,
2013-02-27 01:09:00,39.6,36.4,29.59,SW,231,12.0,16.5,88,0.01,,,0.01,VWS V14.01,2013-02-27 06:09:00,
2013-02-27 01:10:00,39.6,36.7,29.59,WSW,243,13.5,16.5,89,0.01,,,0.01,VWS V14.01,2013-02-27 06:10:00,
2013-02-27 01:11:00,39.5,36.3,29.59,West,262,13.5,18.0,88,0.01,,,0.01,VWS V14.01,2013-02-27 06:11:00,
2013-02-27 01:12:00,39.5,36.3,29.59,West,278,15.0,25.5,88,0.01,,,0.01,VWS V14.01,2013-02-27 06:12:00,
2013-02-27 01:13:00,39.5,36.3,29.59,WSW,254,12.0,21.0,88,0.01,,,0.01,VWS V14.01,2013-02-27 06:13:00,
2013-02-27 01:14:00,39.5,36.3,29.59,SW,229,9.0,18.0,88,0.01,,,0.01,VWS V14.01,2013-02-27 06:14:00,
2013-02-27 01:15:00,39.4,36.2,29.59,West,274,12.0,18.0,88,0.01,,,0.01,VWS V14.01,2013-02-27 06:15:00,
2013-02-27 01:16:00,39.4,36.2,29.59,SSW,202,12.0,16.5,88,0.01,,,0.01,VWS V14.01,2013-02-27 06:16:00,
2013-02-27 01:17:00,39.3,36.1,29.59,WSW,252,10.5,21.0,88,0.01,,,0.01,VWS V14.01,2013-02-27 06:17:00,
2013-02-27 01:18:00,39.3,36.1,29.59,WSW,243,9.0,18.0,88,0.01,,,0.01,VWS V14.01,2013-02-27 06:18:00,
2013-02-27 01:19:00,39.3,36.4,29.59,WSW,252,13.5,22.5,89,0.01,,,0.01,VWS V14.01,2013-02-27 06:19:00,
2013-02-27 01:20:00,39.3,36.4,29.59,SW,226,19.5,21.0,89,0.01,,,0.01,VWS V14.01,2013-02-27 06:20:00,
2013-02-27 01:21:00,39.3,36.1,29.59,WSW,255,15.0,19.5,88,0.01,,,0.01,VWS V14.01,2013-02-27 06:21:00,
2013-02-27 01:22:00,39.3,36.1,29.59,WSW,240,9.0,16.5,88,0.01,,,0.01,VWS V14.01,2013-02-27 06:22:00,
2013-02-27 01:23:00,39.3,36.1,29.59,SW,229,10.5,15.0,88,0.01,,,0.01,VWS V14.01,2013-02-27 06:23:00,
2013-02-27 01:24:00,39.3,36.1,29.59,West,281,18.0,19.5,88,0.01,,,0.01,VWS V14.01,2013-02-27 06:24:00,
2013-02-27 01:25:00,39.3,36.1,29.59,WSW,256,7.5,18.0,88,0.01,,,0.01,VWS V14.01,2013-02-27 06:25:00,
2013-02-27 01:26:00,39.3,36.1,29.59,West,264,12.0,18.0,88,0.01,,,0.01,VWS V14.01,2013-02-27 06:26:00,
2013-02-27 01:27:00,39.3,36.4,29.59,WSW,258,7.5,16.5,89,0.01,,,0.01,VWS V14.01,2013-02-27 06:27:00,
2013-02-27 01:28:00,39.3,36.4,29.59,WSW,248,15.0,15.0,89,0.01,,,0.01,VWS V14.01,2013-02-27 06:28:00,
2013-02-27 01:29:00,39.3,36.4,29.59,WSW,257,9.0,18.0,89,0.01,,,0.01,VWS V14.01,2013-02-27 06:29:00,
2013-02-27 01:30:00,39.3,36.4,29.59,SW,229,12.0,12.0,89,0.01,,,0.01,VWS V14.01,2013-02-27 06:30:00,
2013-02-27 01:31:00,39.3,36.4,29.59,WSW,241,10.5,16.5,89,0.01,,,0.01,VWS V14.01,2013-02-27 06:31:00,
2013-02-27 01:32:00,39.3,36.4,29.59,WSW,248,18.0,19.5,89,0.01,,,0.01,VWS V14.01,2013-02-27 06:32:00,
2013-02-27 01:33:00,39.3,36.1,29.59,SW,231,15.0,18.0,88,0.01,,,0.01,VWS V14.01,2013-02-27 06:33:00,
2013-02-27 01:34:00,39.3,36.1,29.59,West,268,7.5,18.0,88,0.01,,,0.01,VWS V14.01,2013-02-27 06:34:00,
2013-02-27 01:35:00,39.3,36.1,29.59,SW,234,18.0,18.0,88,0.01,,,0.01,VWS V14.01,2013-02-27 06:35:00,
2013-02-27 01:36:00,39.3,36.1,29.59,WSW,245,9.0,18.0,88,0.01,,,0.01,VWS V14.01,2013-02-27 06:36:00,
2013-02-27 01:37:00,39.3,36.1,29.59,West,272,10.5,18.0,88,0.01,,,0.01,VWS V14.01,2013-02-27 06:37:00,
2013-02-27 01:38:00,39.4,36.2,29.60,SW,219,12.0,16.5,88,0.01,,,0.01,VWS V14.01,2013-02-27 06:38:00,
2013-02-27 01:39:00,39.4,36.2,29.60,WSW,243,19.5,19.5,88,0.01,,,0.01,VWS V14.01,2013-02-27 06:39:00,
2013-02-27 01:40:00,39.4,36.2,29.60,SSW,208,15.0,19.5,88,0.01,,,0.01,VWS V14.01,2013-02-27 06:40:00,
2013-02-27 01:41:00,39.4,36.2,29.60,WSW,254,12.0,15.0,88,0.01,,,0.01,VWS V14.01,2013-02-27 06:41:00,
2013-02-27 01:42:00,39.4,36.2,29.60,SW,226,15.0,18.0,88,0.01,,,0.01,VWS V14.01,2013-02-27 06:42:00,
2013-02-27 01:43:00,39.4,36.2,29.60,WSW,257,18.0,18.0,88,0.01,,,0.01,VWS V14.01,2013-02-27 06:43:00,
2013-02-27 01:44:00,39.4,36.2,29.60,SW,219,12.0,18.0,88,0.01,,,0.01,VWS V14.01,2013-02-27 06:44:00,
2013-02-27 01:45:00,39.4,36.2,29.60,SW,236,12.0,15.0,88,0.01,,,0.01,VWS V14.01,2013-02-27 06:45:00,
2013-02-27 01:46:00,39.4,36.2,29.60,SW,229,12.0,16.5,88,0.01,,,0.01,VWS V14.01,2013-02-27 06:46:00,
2013-02-27 01:47:00,39.4,36.2,29.60,WSW,244,10.5,15.0,88,0.01,,,0.01,VWS V14.01,2013-02-27 06:47:00,
2013-02-27 01:48:00,39.4,36.2,29.60,NW,315,12.0,12.0,88,0.00,,,0.01,VWS V14.01,2013-02-27 06:48:00,
2013-02-27 01:49:00,39.4,36.5,29.60,WSW,247,7.5,12.0,89,0.00,,,0.01,VWS V14.01,2013-02-27 06:49:00,
2013-02-27 01:50:00,39.5,36.6,29.60,WSW,246,15.0,15.0,89,0.00,,,0.01,VWS V14.01,2013-02-27 06:50:00,
2013-02-27 01:51:00,39.5,36.6,29.60,SW,220,7.5,16.5,89,0.00,,,0.01,VWS V14.01,2013-02-27 06:51:00,
2013-02-27 01:52:00,39.5,36.6,29.60,SW,229,12.0,19.5,89,0.00,,,0.01,VWS V14.01,2013-02-27 06:52:00,
2013-02-27 01:53:00,39.5,36.6,29.60,WSW,246,12.0,16.5,89,0.00,,,0.01,VWS V14.01,2013-02-27 06:53:00,
2013-02-27 01:54:00,39.5,36.6,29.60,WSW,247,7.5,16.5,89,0.00,,,0.01,VWS V14.01,2013-02-27 06:54:00,
2013-02-27 01:55:00,39.5,36.6,29.60,West,265,9.0,9.0,89,0.00,,,0.01,VWS V14.01,2013-02-27 06:55:00,
2013-02-27 01:56:00,39.5,36.6,29.60,SW,236,15.0,18.0,89,0.00,,,0.01,VWS V14.01,2013-02-27 06:56:00,
2013-02-27 01:57:00,39.5,36.6,29.60,SW,219,12.0,15.0,89,0.00,,,0.01,VWS V14.01,2013-02-27 06:57:00,
2013-02-27 01:58:00,39.5,36.6,29.60,WSW,246,15.0,15.0,89,0.00,,,0.01,VWS V14.01,2013-02-27 06:58:00,
2013-02-27 01:59:00,39.5,36.6,29.60,SW,233,12.0,24.0,89,0.00,,,0.01,VWS V14.01,2013-02-27 06:59:00,
2013-02-27 02:00:00,39.5,36.6,29.60,SW,234,12.0,15.0,89,0.00,,,0.01,VWS V14.01,2013-02-27 07:00:00,
2013-02-27 02:01:00,39.5,36.6,29.60,SW,232,19.5,19.5,89,0.00,,,0.01,VWS V14.01,2013-02-27 07:01:00,
2013-02-27 02:02:00,39.5,36.6,29.60,WSW,247,16.5,21.0,89,0.00,,,0.01,VWS V14.01,2013-02-27 07:02:00,
2013-02-27 02:03:00,39.5,36.6,29.60,WSW,237,12.0,16.5,89,0.00,,,0.01,VWS V14.01,2013-02-27 07:03:00,
2013-02-27 02:04:00,39.5,36.6,29.60,WSW,254,10.5,15.0,89,0.00,,,0.01,VWS V14.01,2013-02-27 07:04:00,
2013-02-27 02:05:00,39.5,36.6,29.60,WSW,237,19.5,19.5,89,0.00,,,0.01,VWS V14.01,2013-02-27 07:05:00,
2013-02-27 02:06:00,39.5,36.6,29.60,WSW,243,18.0,19.5,89,0.00,,,0.01,VWS V14.01,2013-02-27 07:06:00,
2013-02-27 02:07:00,39.5,36.6,29.60,WSW,249,10.5,18.0,89,0.00,,,0.01,VWS V14.01,2013-02-27 07:07:00,
2013-02-27 02:08:00,39.6,36.7,29.60,WSW,248,13.5,19.5,89,0.00,,,0.01,VWS V14.01,2013-02-27 07:08:00,
2013-02-27 02:09:00,39.6,36.7,29.60,SW,234,12.0,19.5,89,0.00,,,0.01,VWS V14.01,2013-02-27 07:09:00,
2013-02-27 02:10:00,39.6,36.7,29.60,WNW,285,10.5,10.5,89,0.00,,,0.01,VWS V14.01,2013-02-27 07:10:00,
2013-02-27 02:11:00,39.6,36.7,29.60,West,260,18.0,25.5,89,0.00,,,0.01,VWS V14.01,2013-02-27 07:11:00,
2013-02-27 02:12:00,39.7,36.5,29.60,SW,226,18.0,19.5,88,0.00,,,0.01,VWS V14.01,2013-02-27 07:12:00,
2013-02-27 02:13:00,39.7,36.5,29.60,West,261,10.5,18.0,88,0.00,,,0.01,VWS V14.01,2013-02-27 07:13:00,
2013-02-27 02:14:00,39.7,36.5,29.60,SW,226,15.0,21.0,88,0.00,,,0.01,VWS V14.01,2013-02-27 07:14:00,
2013-02-27 02:15:00,39.7,36.5,29.60,WSW,243,13.5,15.0,88,0.00,,,0.01,VWS V14.01,2013-02-27 07:15:00,
2013-02-27 02:16:00,39.7,36.5,29.60,SW,236,16.5,21.0,88,0.00,,,0.01,VWS V14.01,2013-02-27 07:16:00,
2013-02-27 02:17:00,39.7,36.5,29.60,WSW,240,19.5,19.5,88,0.00,,,0.01,VWS V14.01,2013-02-27 07:17:00,
2013-02-27 02:18:00,39.7,36.5,29.60,SW,236,12.0,19.5,88,0.00,,,0.01,VWS V14.01,2013-02-27 07:18:00,
2013-02-27 02:19:00,39.7,36.8,29.60,West,260,12.0,13.5,89,0.00,,,0.01,VWS V14.01,2013-02-27 07:19:00,
2013-02-27 02:20:00,39.7,36.8,29.60,SW,233,18.0,21.0,89,0.00,,,0.01,VWS V14.01,2013-02-27 07:20:00,
2013-02-27 02:21:00,39.7,36.5,29.60,WSW,248,9.0,21.0,88,0.00,,,0.01,VWS V14.01,2013-02-27 07:21:00,
2013-02-27 02:22:00,39.7,36.5,29.60,WSW,250,9.0,18.0,88,0.00,,,0.01,VWS V14.01,2013-02-27 07:22:00,
2013-02-27 02:23:00,39.7,36.8,29.60,WSW,254,15.0,15.0,89,0.00,,,0.01,VWS V14.01,2013-02-27 07:23:00,
2013-02-27 02:24:00,39.7,36.8,29.60,WSW,243,13.5,18.0,89,0.00,,,0.01,VWS V14.01,2013-02-27 07:24:00,
2013-02-27 02:25:00,39.7,36.8,29.60,WSW,244,10.5,18.0,89,0.00,,,0.01,VWS V14.01,2013-02-27 07:25:00,
2013-02-27 02:26:00,39.7,36.8,29.60,SW,215,18.0,21.0,89,0.00,,,0.01,VWS V14.01,2013-02-27 07:26:00,
2013-02-27 02:27:00,39.7,36.8,29.60,WSW,246,16.5,21.0,89,0.00,,,0.01,VWS V14.01,2013-02-27 07:27:00,
2013-02-27 02:28:00,39.7,36.5,29.60,WSW,246,15.0,16.5,88,0.00,,,0.01,VWS V14.01,2013-02-27 07:28:00,
2013-02-27 02:29:00,39.7,36.8,29.60,SW,220,12.0,15.0,89,0.00,,,0.01,VWS V14.01,2013-02-27 07:29:00,
2013-02-27 02:30:00,39.7,36.8,29.60,WSW,253,12.0,15.0,89,0.00,,,0.01,VWS V14.01,2013-02-27 07:30:00,
2013-02-27 02:31:00,39.7,36.8,29.60,WSW,257,7.5,18.0,89,0.00,,,0.01,VWS V14.01,2013-02-27 07:31:00,
2013-02-27 02:32:00,39.7,36.8,29.60,SSW,202,12.0,12.0,89,0.00,,,0.01,VWS V14.01,2013-02-27 07:32:00,
2013-02-27 02:33:00,39.7,36.8,29.60,WSW,245,12.0,16.5,89,0.00,,,0.01,VWS V14.01,2013-02-27 07:33:00,
2013-02-27 02:34:00,39.7,36.8,29.60,SSW,209,9.0,13.5,89,0.00,,,0.01,VWS V14.01,2013-02-27 07:34:00,
2013-02-27 02:35:00,39.7,36.8,29.60,SW,236,15.0,15.0,89,0.00,,,0.01,VWS V14.01,2013-02-27 07:35:00,
2013-02-27 02:36:00,39.7,36.8,29.60,SW,219,6.0,16.5,89,0.00,,,0.01,VWS V14.01,2013-02-27 07:36:00,
2013-02-27 02:37:00,39.7,36.8,29.60,WSW,249,13.5,21.0,89,0.00,,,0.01,VWS V14.01,2013-02-27 07:37:00,
2013-02-27 02:38:00,39.7,36.8,29.60,SW,229,9.0,18.0,89,0.00,,,0.01,VWS V14.01,2013-02-27 07:38:00,
2013-02-27 02:39:00,39.7,36.8,29.60,WSW,254,13.5,16.5,89,0.00,,,0.01,VWS V14.01,2013-02-27 07:39:00,
2013-02-27 02:40:00,39.7,36.8,29.60,SW,229,10.5,12.0,89,0.00,,,0.01,VWS V14.01,2013-02-27 07:40:00,
2013-02-27 02:41:00,39.7,36.8,29.60,WSW,258,12.0,12.0,89,0.00,,,0.01,VWS V14.01,2013-02-27 07:41:00,
2013-02-27 02:42:00,39.7,36.8,29.60,SSW,205,13.5,19.5,89,0.00,,,0.01,VWS V14.01,2013-02-27 07:42:00,
2013-02-27 02:43:00,39.7,36.8,29.60,WSW,257,13.5,18.0,89,0.00,,,0.01,VWS V14.01,2013-02-27 07:43:00,
2013-02-27 02:44:00,39.7,36.8,29.60,SW,219,10.5,15.0,89,0.00,,,0.01,VWS V14.01,2013-02-27 07:44:00,
2013-02-27 02:45:00,39.8,36.9,29.60,WSW,249,12.0,13.5,89,0.00,,,0.01,VWS V14.01,2013-02-27 07:45:00,
2013-02-27 02:46:00,39.8,36.9,29.60,WSW,246,15.0,15.0,89,0.00,,,0.01,VWS V14.01,2013-02-27 07:46:00,
2013-02-27 02:47:00,39.8,36.9,29.60,West,260,16.5,16.5,89,0.00,,,0.01,VWS V14.01,2013-02-27 07:47:00,
2013-02-27 02:48:00,39.8,36.9,29.60,WSW,246,12.0,16.5,89,0.00,,,0.01,VWS V14.01,2013-02-27 07:48:00,
2013-02-27 02:49:00,39.8,36.9,29.60,WSW,247,12.0,19.5,89,0.00,,,0.01,VWS V14.01,2013-02-27 07:49:00,
2013-02-27 02:50:00,39.8,36.9,29.60,WSW,248,16.5,16.5,89,0.00,,,0.01,VWS V14.01,2013-02-27 07:50:00,
2013-02-27 02:51:00,39.9,36.7,29.60,WSW,246,12.0,16.5,88,0.00,,,0.01,VWS V14.01,2013-02-27 07:51:00,
2013-02-27 02:52:00,39.9,36.7,29.60,WSW,243,10.5,16.5,88,0.00,,,0.01,VWS V14.01,2013-02-27 07:52:00,
2013-02-27 02:53:00,39.9,36.7,29.60,WSW,246,9.0,15.0,88,0.00,,,0.01,VWS V14.01,2013-02-27 07:53:00,
2013-02-27 02:54:00,39.9,36.7,29.60,SSW,208,12.0,15.0,88,0.00,,,0.01,VWS V14.01,2013-02-27 07:54:00,
2013-02-27 02:55:00,39.9,36.7,29.60,SW,223,16.5,21.0,88,0.00,,,0.01,VWS V14.01,2013-02-27 07:55:00,
2013-02-27 02:56:00,39.9,36.7,29.60,WSW,245,12.0,21.0,88,0.00,,,0.01,VWS V14.01,2013-02-27 07:56:00,
2013-02-27 02:57:00,39.9,36.7,29.60,WSW,249,15.0,18.0,88,0.00,,,0.01,VWS V14.01,2013-02-27 07:57:00,
2013-02-27 02:58:00,39.9,36.7,29.61,WSW,246,15.0,16.5,88,0.00,,,0.01,VWS V14.01,2013-02-27 07:58:00,
2013-02-27 02:59:00,40.0,36.8,29.60,WSW,255,19.5,19.5,88,0.00,,,0.01,VWS V14.01,2013-02-27 07:59:00,
2013-02-27 03:00:00,40.0,36.8,29.61,WSW,251,15.0,19.5,88,0.00,,,0.01,VWS V14.01,2013-02-27 08:00:00,
2013-02-27 03:01:00,40.0,36.8,29.61,WSW,243,12.0,18.0,88,0.00,,,0.01,VWS V14.01,2013-02-27 08:01:00,
2013-02-27 03:02:00,40.0,36.8,29.60,WSW,243,10.5,15.0,88,0.00,,,0.01,VWS V14.01,2013-02-27 08:02:00,
2013-02-27 03:03:00,39.9,36.7,29.61,SW,224,12.0,13.5,88,0.00,,,0.01,VWS V14.01,2013-02-27 08:03:00,
2013-02-27 03:04:00,40.0,36.8,29.60,SW,226,13.5,15.0,88,0.00,,,0.01,VWS V14.01,2013-02-27 08:04:00,
2013-02-27 03:05:00,39.9,36.7,29.60,SW,220,18.0,18.0,88,0.00,,,0.01,VWS V14.01,2013-02-27 08:05:00,
2013-02-27 03:06:00,40.0,36.8,29.60,WSW,254,16.5,18.0,88,0.00,,,0.01,VWS V14.01,2013-02-27 08:06:00,
2013-02-27 03:07:00,40.0,36.8,29.60,WSW,253,10.5,16.5,88,0.00,,,0.01,VWS V14.01,2013-02-27 08:07:00,
2013-02-27 03:08:00,40.0,36.8,29.60,WSW,238,9.0,16.5,88,0.00,,,0.01,VWS V14.01,2013-02-27 08:08:00,
2013-02-27 03:09:00,40.0,36.8,29.60,West,265,10.5,21.0,88,0.00,,,0.01,VWS V14.01,2013-02-27 08:09:00,
2013-02-27 03:10:00,40.0,36.8,29.60,WSW,249,19.5,19.5,88,0.00,,,0.01,VWS V14.01,2013-02-27 08:10:00,
2013-02-27 03:11:00,40.0,36.8,29.60,West,259,7.5,19.5,88,0.00,,,0.01,VWS V14.01,2013-02-27 08:11:00,
2013-02-27 03:12:00,40.0,36.8,29.60,SW,231,7.5,10.5,88,0.00,,,0.01,VWS V14.01,2013-02-27 08:12:00,
2013-02-27 03:13:00,40.0,36.8,29.60,WSW,243,13.5,13.5,88,0.00,,,0.01,VWS V14.01,2013-02-27 08:13:00,
2013-02-27 03:14:00,40.0,36.8,29.60,SW,223,10.5,13.5,88,0.00,,,0.01,VWS V14.01,2013-02-27 08:14:00,
2013-02-27 03:15:00,40.0,36.8,29.60,SW,231,13.5,16.5,88,0.00,,,0.01,VWS V14.01,2013-02-27 08:15:00,
2013-02-27 03:16:00,40.0,36.8,29.60,SW,229,13.5,16.5,88,0.00,,,0.01,VWS V14.01,2013-02-27 08:16:00,
2013-02-27 03:17:00,40.0,36.8,29.60,WSW,243,13.5,15.0,88,0.00,,,0.01,VWS V14.01,2013-02-27 08:17:00,
2013-02-27 03:18:00,40.0,36.8,29.60,WSW,243,15.0,16.5,88,0.00,,,0.01,VWS V14.01,2013-02-27 08:18:00,
2013-02-27 03:19:00,40.0,36.8,29.60,SW,229,10.5,15.0,88,0.00,,,0.01,VWS V14.01,2013-02-27 08:19:00,
2013-02-27 03:20:00,40.0,36.8,29.60,WSW,246,13.5,13.5,88,0.00,,,0.01,VWS V14.01,2013-02-27 08:20:00,
2013-02-27 03:21:00,40.0,36.8,29.60,WSW,251,10.5,13.5,88,0.00,,,0.01,VWS V14.01,2013-02-27 08:21:00,
2013-02-27 03:22:00,40.0,36.8,29.60,SW,236,18.0,18.0,88,0.00,,,0.01,VWS V14.01,2013-02-27 08:22:00,
2013-02-27 03:23:00,40.0,36.8,29.60,WSW,239,12.0,18.0,88,0.00,,,0.01,VWS V14.01,2013-02-27 08:23:00,
2013-02-27 03:24:00,40.0,36.8,29.60,WSW,251,16.5,22.5,88,0.00,,,0.01,VWS V14.01,2013-02-27 08:24:00,
2013-02-27 03:25:00,40.0,36.8,29.60,WSW,253,12.0,13.5,88,0.00,,,0.01,VWS V14.01,2013-02-27 08:25:00,
2013-02-27 03:26:00,40.0,36.8,29.60,WSW,255,9.0,18.0,88,0.00,,,0.01,VWS V14.01,2013-02-27 08:26:00,
2013-02-27 03:27:00,40.0,36.8,29.60,West,261,15.0,16.5,88,0.00,,,0.01,VWS V14.01,2013-02-27 08:27:00,
2013-02-27 03:28:00,40.0,36.8,29.60,SW,217,6.0,15.0,88,0.00,,,0.01,VWS V14.01,2013-02-27 08:28:00,
2013-02-27 03:29:00,39.9,36.7,29.60,SW,220,7.5,16.5,88,0.00,,,0.01,VWS V14.01,2013-02-27 08:29:00,
2013-02-27 03:30:00,40.0,36.8,29.60,SW,216,13.5,18.0,88,0.00,,,0.01,VWS V14.01,2013-02-27 08:30:00,
2013-02-27 03:31:00,39.9,36.7,29.60,SW,236,13.5,19.5,88,0.00,,,0.01,VWS V14.01,2013-02-27 08:31:00,
2013-02-27 03:32:00,39.9,36.7,29.60,West,281,7.5,13.5,88,0.00,,,0.01,VWS V14.01,2013-02-27 08:32:00,
2013-02-27 03:33:00,39.9,36.7,29.60,SW,224,13.5,16.5,88,0.00,,,0.01,VWS V14.01,2013-02-27 08:33:00,
2013-02-27 03:34:00,40.0,36.8,29.60,WSW,245,13.5,19.5,88,0.00,,,0.01,VWS V14.01,2013-02-27 08:34:00,
2013-02-27 03:35:00,39.9,36.7,29.60,SW,223,12.0,13.5,88,0.00,,,0.01,VWS V14.01,2013-02-27 08:35:00,
2013-02-27 03:36:00,39.9,36.7,29.60,WSW,245,13.5,18.0,88,0.00,,,0.01,VWS V14.01,2013-02-27 08:36:00,
2013-02-27 03:37:00,39.9,36.7,29.61,SW,231,18.0,18.0,88,0.00,,,0.01,VWS V14.01,2013-02-27 08:37:00,
2013-02-27 03:38:00,39.9,36.7,29.61,SW,224,15.0,18.0,88,0.00,,,0.01,VWS V14.01,2013-02-27 08:38:00,
2013-02-27 03:39:00,39.9,36.7,29.61,West,262,16.5,21.0,88,0.00,,,0.01,VWS V14.01,2013-02-27 08:39:00,
2013-02-27 03:40:00,39.9,36.7,29.61,WSW,250,18.0,22.5,88,0.00,,,0.01,VWS V14.01,2013-02-27 08:40:00,
2013-02-27 03:41:00,39.9,36.7,29.61,West,279,10.5,18.0,88,0.00,,,0.01,VWS V14.01,2013-02-27 08:41:00,
2013-02-27 03:42:00,39.9,36.7,29.61,WSW,252,10.5,16.5,88,0.00,,,0.01,VWS V14.01,2013-02-27 08:42:00,
2013-02-27 03:43:00,39.9,36.7,29.61,SSW,201,9.0,13.5,88,0.00,,,0.01,VWS V14.01,2013-02-27 08:43:00,
2013-02-27 03:44:00,39.9,36.7,29.61,WSW,246,15.0,18.0,88,0.00,,,0.01,VWS V14.01,2013-02-27 08:44:00,
2013-02-27 03:45:00,39.9,36.7,29.61,WSW,256,22.5,22.5,88,0.00,,,0.01,VWS V14.01,2013-02-27 08:45:00,
2013-02-27 03:46:00,39.9,36.7,29.61,SW,226,18.0,24.0,88,0.00,,,0.01,VWS V14.01,2013-02-27 08:46:00,
2013-02-27 03:47:00,39.9,36.7,29.60,SW,229,12.0,18.0,88,0.00,,,0.01,VWS V14.01,2013-02-27 08:47:00,
2013-02-27 03:48:00,39.9,36.7,29.61,WSW,238,13.5,16.5,88,0.00,,,0.01,VWS V14.01,2013-02-27 08:48:00,
2013-02-27 03:49:00,39.9,36.7,29.60,WSW,248,10.5,19.5,88,0.00,,,0.01,VWS V14.01,2013-02-27 08:49:00,
2013-02-27 03:50:00,39.9,36.7,29.61,West,264,6.0,13.5,88,0.00,,,0.01,VWS V14.01,2013-02-27 08:50:00,
2013-02-27 03:51:00,39.9,36.7,29.61,West,276,19.5,25.5,88,0.00,,,0.01,VWS V14.01,2013-02-27 08:51:00,
2013-02-27 03:52:00,39.9,36.7,29.61,WSW,248,10.5,19.5,88,0.00,,,0.01,VWS V14.01,2013-02-27 08:52:00,
2013-02-27 03:53:00,39.9,36.4,29.61,WSW,257,12.0,21.0,87,0.00,,,0.01,VWS V14.01,2013-02-27 08:53:00,
2013-02-27 03:54:00,39.9,36.4,29.61,SW,229,12.0,13.5,87,0.00,,,0.01,VWS V14.01,2013-02-27 08:54:00,
2013-02-27 03:55:00,39.9,36.4,29.61,WSW,258,13.5,19.5,87,0.00,,,0.01,VWS V14.01,2013-02-27 08:55:00,
2013-02-27 03:56:00,39.9,36.4,29.61,West,260,10.5,19.5,87,0.00,,,0.01,VWS V14.01,2013-02-27 08:56:00,
2013-02-27 03:57:00,40.0,36.5,29.61,WSW,250,7.5,12.0,87,0.00,,,0.01,VWS V14.01,2013-02-27 08:57:00,
2013-02-27 03:58:00,39.9,36.4,29.60,West,269,6.0,13.5,87,0.00,,,0.01,VWS V14.01,2013-02-27 08:58:00,
2013-02-27 03:59:00,39.9,36.4,29.60,WSW,240,16.5,16.5,87,0.00,,,0.01,VWS V14.01,2013-02-27 08:59:00,
2013-02-27 04:00:00,39.9,36.4,29.61,WSW,245,13.5,16.5,87,0.00,,,0.01,VWS V14.01,2013-02-27 09:00:00,
2013-02-27 04:01:00,40.0,36.5,29.61,WSW,250,10.5,16.5,87,0.00,,,0.01,VWS V14.01,2013-02-27 09:01:00,
2013-02-27 04:02:00,40.0,36.5,29.61,WSW,249,12.0,15.0,87,0.00,,,0.01,VWS V14.01,2013-02-27 09:02:00,
2013-02-27 04:03:00,40.0,36.5,29.61,WSW,253,21.0,24.0,87,0.00,,,0.01,VWS V14.01,2013-02-27 09:03:00,
2013-02-27 04:04:00,40.0,36.5,29.61,SW,227,13.5,21.0,87,0.00,,,0.01,VWS V14.01,2013-02-27 09:04:00,
2013-02-27 04:05:00,40.0,36.5,29.61,WSW,248,9.0,16.5,87,0.00,,,0.01,VWS V14.01,2013-02-27 09:05:00,
2013-02-27 04:06:00,40.0,36.5,29.61,WSW,256,6.0,15.0,87,0.00,,,0.01,VWS V14.01,2013-02-27 09:06:00,
2013-02-27 04:07:00,40.0,36.5,29.61,WSW,245,13.5,19.5,87,0.00,,,0.01,VWS V14.01,2013-02-27 09:07:00,
2013-02-27 04:08:00,40.0,36.5,29.61,WSW,243,7.5,13.5,87,0.00,,,0.01,VWS V14.01,2013-02-27 09:08:00,
2013-02-27 04:09:00,40.0,36.5,29.61,WSW,248,12.0,12.0,87,0.00,,,0.01,VWS V14.01,2013-02-27 09:09:00,
2013-02-27 04:10:00,40.0,36.5,29.61,SW,231,22.5,22.5,87,0.00,,,0.01,VWS V14.01,2013-02-27 09:10:00,
2013-02-27 04:11:00,40.0,36.2,29.61,NW,326,10.5,22.5,86,0.00,,,0.01,VWS V14.01,2013-02-27 09:11:00,
2013-02-27 04:12:00,40.0,36.2,29.61,West,261,9.0,12.0,86,0.00,,,0.01,VWS V14.01,2013-02-27 09:12:00,
2013-02-27 04:13:00,40.0,36.2,29.61,SW,234,15.0,15.0,86,0.00,,,0.01,VWS V14.01,2013-02-27 09:13:00,
2013-02-27 04:14:00,40.0,36.2,29.61,SW,234,7.5,15.0,86,0.00,,,0.01,VWS V14.01,2013-02-27 09:14:00,
2013-02-27 04:15:00,40.0,36.2,29.61,WSW,254,18.0,18.0,86,0.00,,,0.01,VWS V14.01,2013-02-27 09:15:00,
2013-02-27 04:16:00,40.0,36.2,29.61,WNW,284,7.5,19.5,86,0.00,,,0.01,VWS V14.01,2013-02-27 09:16:00,
2013-02-27 04:17:00,40.0,36.2,29.61,WSW,253,7.5,13.5,86,0.00,,,0.01,VWS V14.01,2013-02-27 09:17:00,
2013-02-27 04:18:00,40.0,36.2,29.61,WSW,243,10.5,12.0,86,0.00,,,0.01,VWS V14.01,2013-02-27 09:18:00,
2013-02-27 04:19:00,40.0,36.2,29.61,WSW,243,12.0,15.0,86,0.00,,,0.01,VWS V14.01,2013-02-27 09:19:00,
2013-02-27 04:20:00,40.0,36.2,29.61,SW,229,19.5,21.0,86,0.00,,,0.01,VWS V14.01,2013-02-27 09:20:00,
2013-02-27 04:21:00,40.0,36.2,29.61,WSW,239,12.0,18.0,86,0.00,,,0.01,VWS V14.01,2013-02-27 09:21:00,
2013-02-27 04:22:00,40.0,36.2,29.61,WSW,251,10.5,13.5,86,0.00,,,0.01,VWS V14.01,2013-02-27 09:22:00,
2013-02-27 04:23:00,39.9,36.4,29.61,WSW,243,13.5,18.0,87,0.00,,,0.01,VWS V14.01,2013-02-27 09:23:00,
2013-02-27 04:24:00,40.0,36.5,29.61,SW,229,13.5,16.5,87,0.00,,,0.01,VWS V14.01,2013-02-27 09:24:00,
2013-02-27 04:25:00,39.9,36.4,29.61,WSW,243,19.5,19.5,87,0.00,,,0.01,VWS V14.01,2013-02-27 09:25:00,
2013-02-27 04:26:00,39.9,36.4,29.61,SW,236,7.5,19.5,87,0.00,,,0.01,VWS V14.01,2013-02-27 09:26:00,
2013-02-27 04:27:00,39.9,36.4,29.61,WSW,250,19.5,19.5,87,0.00,,,0.01,VWS V14.01,2013-02-27 09:27:00,
2013-02-27 04:28:00,39.9,36.4,29.62,SW,230,16.5,24.0,87,0.00,,,0.01,VWS V14.01,2013-02-27 09:28:00,
2013-02-27 04:29:00,39.9,36.1,29.62,WSW,255,10.5,18.0,86,0.00,,,0.01,VWS V14.01,2013-02-27 09:29:00,
2013-02-27 04:30:00,39.9,36.1,29.62,WSW,240,13.5,19.5,86,0.00,,,0.01,VWS V14.01,2013-02-27 09:30:00,
2013-02-27 04:31:00,39.9,36.1,29.61,WSW,256,19.5,21.0,86,0.00,,,0.01,VWS V14.01,2013-02-27 09:31:00,
2013-02-27 04:32:00,39.9,36.1,29.62,WSW,248,19.5,22.5,86,0.00,,,0.01,VWS V14.01,2013-02-27 09:32:00,
2013-02-27 04:33:00,39.9,36.1,29.62,West,264,10.5,19.5,86,0.00,,,0.01,VWS V14.01,2013-02-27 09:33:00,
2013-02-27 04:34:00,39.9,36.1,29.62,SSW,201,9.0,13.5,86,0.00,,,0.01,VWS V14.01,2013-02-27 09:34:00,
2013-02-27 04:35:00,39.9,36.4,29.62,SW,223,9.0,10.5,87,0.00,,,0.01,VWS V14.01,2013-02-27 09:35:00,
2013-02-27 04:36:00,39.9,36.4,29.62,SW,226,9.0,12.0,87,0.00,,,0.01,VWS V14.01,2013-02-27 09:36:00,
2013-02-27 04:37:00,39.9,36.4,29.62,SW,232,10.5,16.5,87,0.00,,,0.01,VWS V14.01,2013-02-27 09:37:00,
2013-02-27 04:38:00,39.9,36.4,29.62,WNW,282,10.5,21.0,87,0.00,,,0.01,VWS V14.01,2013-02-27 09:38:00,
2013-02-27 04:39:00,39.9,36.4,29.62,WSW,250,7.5,15.0,87,0.00,,,0.01,VWS V14.01,2013-02-27 09:39:00,
2013-02-27 04:40:00,39.9,36.4,29.62,WSW,247,13.5,16.5,87,0.00,,,0.01,VWS V14.01,2013-02-27 09:40:00,
2013-02-27 04:41:00,39.9,36.4,29.62,SW,234,18.0,18.0,87,0.00,,,0.01,VWS V14.01,2013-02-27 09:41:00,
2013-02-27 04:42:00,39.9,36.4,29.62,WSW,256,12.0,21.0,87,0.00,,,0.01,VWS V14.01,2013-02-27 09:42:00,
2013-02-27 04:43:00,39.9,36.4,29.62,SW,226,12.0,16.5,87,0.00,,,0.01,VWS V14.01,2013-02-27 09:43:00,
2013-02-27 04:44:00,39.9,36.4,29.62,SW,236,16.5,19.5,87,0.00,,,0.01,VWS V14.01,2013-02-27 09:44:00,
2013-02-27 04:45:00,39.9,36.4,29.62,SW,226,15.0,18.0,87,0.00,,,0.01,VWS V14.01,2013-02-27 09:45:00,
2013-02-27 04:46:00,39.9,36.4,29.62,WSW,245,16.5,24.0,87,0.00,,,0.01,VWS V14.01,2013-02-27 09:46:00,
2013-02-27 04:47:00,39.8,36.3,29.62,WSW,239,18.0,27.0,87,0.00,,,0.01,VWS V14.01,2013-02-27 09:47:00,
2013-02-27 04:48:00,39.8,36.3,29.62,WSW,240,16.5,18.0,87,0.00,,,0.01,VWS V14.01,2013-02-27 09:48:00,
2013-02-27 04:49:00,39.8,36.3,29.62,WSW,253,16.5,21.0,87,0.00,,,0.01,VWS V14.01,2013-02-27 09:49:00,
2013-02-27 04:50:00,39.8,36.3,29.62,SW,216,9.0,16.5,87,0.00,,,0.01,VWS V14.01,2013-02-27 09:50:00,
2013-02-27 04:51:00,39.7,36.2,29.62,WSW,241,12.0,13.5,87,0.00,,,0.01,VWS V14.01,2013-02-27 09:51:00,
2013-02-27 04:52:00,39.7,36.5,29.63,WSW,250,16.5,22.5,88,0.00,,,0.01,VWS V14.01,2013-02-27 09:52:00,
2013-02-27 04:53:00,39.7,36.5,29.62,SW,226,13.5,19.5,88,0.00,,,0.01,VWS V14.01,2013-02-27 09:53:00,
2013-02-27 04:54:00,39.7,36.5,29.62,SW,229,15.0,18.0,88,0.00,,,0.01,VWS V14.01,2013-02-27 09:54:00,
2013-02-27 04:55:00,39.7,36.5,29.63,West,274,9.0,15.0,88,0.00,,,0.01,VWS V14.01,2013-02-27 09:55:00,
2013-02-27 04:56:00,39.6,36.4,29.63,SW,230,12.0,19.5,88,0.00,,,0.01,VWS V14.01,2013-02-27 09:56:00,
2013-02-27 04:57:00,39.6,36.4,29.63,SW,223,24.0,24.0,88,0.00,,,0.01,VWS V14.01,2013-02-27 09:57:00,
2013-02-27 04:58:00,39.6,36.4,29.62,SW,233,10.5,25.5,88,0.00,,,0.01,VWS V14.01,2013-02-27 09:58:00,
2013-02-27 04:59:00,39.6,36.4,29.62,SW,233,15.0,18.0,88,0.00,,,0.01,VWS V14.01,2013-02-27 09:59:00,
2013-02-27 05:00:00,39.6,36.4,29.63,SSW,212,9.0,16.5,88,0.00,,,0.01,VWS V14.01,2013-02-27 10:00:00,
2013-02-27 05:01:00,39.6,36.4,29.63,WSW,247,24.0,24.0,88,0.00,,,0.01,VWS V14.01,2013-02-27 10:01:00,
2013-02-27 05:02:00,39.6,36.4,29.63,WSW,237,7.5,24.0,88,0.00,,,0.01,VWS V14.01,2013-02-27 10:02:00,
2013-02-27 05:04:00,39.6,36.4,29.63,WSW,245,16.5,16.5,88,0.00,,,0.01,VWS V14.01,2013-02-27 10:04:00,
2013-02-27 05:05:00,39.6,36.4,29.63,WSW,257,12.0,18.0,88,0.00,,,0.01,VWS V14.01,2013-02-27 10:05:00,
2013-02-27 05:06:00,39.6,36.4,29.63,WSW,256,9.0,19.5,88,0.00,,,0.01,VWS V14.01,2013-02-27 10:06:00,
2013-02-27 05:08:00,39.6,36.4,29.63,SSW,208,16.5,27.0,88,0.00,,,0.01,VWS V14.01,2013-02-27 10:08:00,
2013-02-27 05:09:00,39.6,36.4,29.63,SW,236,9.0,19.5,88,0.00,,,0.01,VWS V14.01,2013-02-27 10:09:00,
2013-02-27 05:10:00,39.6,36.4,29.63,WSW,255,22.5,22.5,88,0.00,,,0.01,VWS V14.01,2013-02-27 10:10:00,
2013-02-27 05:11:00,39.6,36.4,29.63,WSW,244,12.0,22.5,88,0.00,,,0.01,VWS V14.01,2013-02-27 10:11:00,
2013-02-27 05:12:00,39.6,36.4,29.63,SW,224,15.0,19.5,88,0.00,,,0.01,VWS V14.01,2013-02-27 10:12:00,
2013-02-27 05:13:00,39.6,36.4,29.63,SW,234,21.0,21.0,88,0.00,,,0.01,VWS V14.01,2013-02-27 10:13:00,
2013-02-27 05:14:00,39.6,36.4,29.63,West,262,21.0,24.0,88,0.00,,,0.01,VWS V14.01,2013-02-27 10:14:00,
2013-02-27 05:15:00,39.6,36.4,29.63,WSW,248,15.0,21.0,88,0.00,,,0.01,VWS V14.01,2013-02-27 10:15:00,
2013-02-27 05:16:00,39.7,36.5,29.64,West,267,22.5,22.5,88,0.00,,,0.01,VWS V14.01,2013-02-27 10:16:00,
2013-02-27 05:17:00,39.6,36.4,29.64,WSW,246,15.0,22.5,88,0.00,,,0.01,VWS V14.01,2013-02-27 10:17:00,
2013-02-27 05:18:00,39.7,36.5,29.64,West,274,12.0,15.0,88,0.00,,,0.01,VWS V14.01,2013-02-27 10:18:00,
2013-02-27 05:19:00,39.7,36.5,29.64,SW,226,6.0,13.5,88,0.00,,,0.01,VWS V14.01,2013-02-27 10:19:00,
2013-02-27 05:20:00,39.7,36.5,29.64,WSW,251,10.5,15.0,88,0.00,,,0.01,VWS V14.01,2013-02-27 10:20:00,
2013-02-27 05:21:00,39.7,36.5,29.64,SW,219,9.0,12.0,88,0.00,,,0.01,VWS V14.01,2013-02-27 10:21:00,
2013-02-27 05:22:00,39.6,36.4,29.64,WSW,251,19.5,22.5,88,0.00,,,0.01,VWS V14.01,2013-02-27 10:22:00,
2013-02-27 05:23:00,39.6,36.4,29.64,West,260,15.0,24.0,88,0.00,,,0.01,VWS V14.01,2013-02-27 10:23:00,
2013-02-27 05:24:00,39.6,36.4,29.64,WSW,246,16.5,22.5,88,0.00,,,0.01,VWS V14.01,2013-02-27 10:24:00,
2013-02-27 05:25:00,39.6,36.4,29.64,WNW,299,12.0,16.5,88,0.00,,,0.01,VWS V14.01,2013-02-27 10:25:00,
2013-02-27 05:26:00,39.6,36.4,29.64,SW,227,13.5,13.5,88,0.00,,,0.01,VWS V14.01,2013-02-27 10:26:00,
2013-02-27 05:27:00,39.6,36.4,29.64,WSW,246,18.0,18.0,88,0.00,,,0.01,VWS V14.01,2013-02-27 10:27:00,
2013-02-27 05:28:00,39.6,36.4,29.64,West,265,21.0,22.5,88,0.00,,,0.01,VWS V14.01,2013-02-27 10:28:00,
2013-02-27 05:29:00,39.6,36.4,29.64,SW,219,15.0,22.5,88,0.00,,,0.01,VWS V14.01,2013-02-27 10:29:00,
2013-02-27 05:30:00,39.6,36.4,29.64,West,265,10.5,22.5,88,0.00,,,0.01,VWS V14.01,2013-02-27 10:30:00,
2013-02-27 05:31:00,39.6,36.4,29.64,SW,233,15.0,18.0,88,0.00,,,0.01,VWS V14.01,2013-02-27 10:31:00,
2013-02-27 05:32:00,39.6,36.4,29.64,WSW,246,10.5,27.0,88,0.00,,,0.01,VWS V14.01,2013-02-27 10:32:00,
2013-02-27 05:33:00,39.6,36.1,29.64,WSW,240,24.0,25.5,87,0.00,,,0.01,VWS V14.01,2013-02-27 10:33:00,
2013-02-27 05:34:00,39.6,36.1,29.64,WSW,241,30.0,31.5,87,0.00,,,0.01,VWS V14.01,2013-02-27 10:34:00,
2013-02-27 05:35:00,39.6,36.1,29.64,West,279,16.5,30.0,87,0.00,,,0.01,VWS V14.01,2013-02-27 10:35:00,
2013-02-27 05:36:00,39.6,35.8,29.64,SW,219,15.0,15.0,86,0.00,,,0.01,VWS V14.01,2013-02-27 10:36:00,
2013-02-27 05:37:00,39.6,35.8,29.64,WSW,255,10.5,16.5,86,0.00,,,0.01,VWS V14.01,2013-02-27 10:37:00,
2013-02-27 05:38:00,39.6,35.8,29.64,WSW,255,13.5,16.5,86,0.00,,,0.01,VWS V14.01,2013-02-27 10:38:00,
2013-02-27 05:39:00,39.6,35.8,29.64,WSW,251,19.5,28.5,86,0.00,,,0.01,VWS V14.01,2013-02-27 10:39:00,
2013-02-27 05:40:00,39.7,35.9,29.64,SW,236,16.5,28.5,86,0.00,,,0.01,VWS V14.01,2013-02-27 10:40:00,
2013-02-27 05:41:00,39.7,35.9,29.64,WSW,247,13.5,30.0,86,0.00,,,0.01,VWS V14.01,2013-02-27 10:41:00,
2013-02-27 05:42:00,39.7,35.9,29.64,SW,215,25.5,25.5,86,0.00,,,0.01,VWS V14.01,2013-02-27 10:42:00,
2013-02-27 05:43:00,39.7,35.6,29.64,SSW,203,16.5,25.5,85,0.00,,,0.01,VWS V14.01,2013-02-27 10:43:00,
2013-02-27 05:44:00,39.7,35.6,29.64,WSW,249,15.0,21.0,85,0.00,,,0.01,VWS V14.01,2013-02-27 10:44:00,
2013-02-27 05:45:00,39.7,35.6,29.64,SW,226,30.0,30.0,85,0.00,,,0.01,VWS V14.01,2013-02-27 10:45:00,
2013-02-27 05:46:00,39.7,35.6,29.64,WSW,253,21.0,24.0,85,0.00,,,0.01,VWS V14.01,2013-02-27 10:46:00,
2013-02-27 05:47:00,39.7,35.6,29.64,SW,224,10.5,24.0,85,0.00,,,0.01,VWS V14.01,2013-02-27 10:47:00,
2013-02-27 05:48:00,39.7,35.6,29.64,WSW,243,18.0,19.5,85,0.00,,,0.01,VWS V14.01,2013-02-27 10:48:00,
2013-02-27 05:49:00,39.7,35.6,29.64,West,281,15.0,25.5,85,0.00,,,0.01,VWS V14.01,2013-02-27 10:49:00,
2013-02-27 05:50:00,39.7,35.6,29.64,West,265,9.0,27.0,85,0.00,,,0.01,VWS V14.01,2013-02-27 10:50:00,
2013-02-27 05:51:00,39.7,35.6,29.64,WSW,243,15.0,28.5,85,0.00,,,0.01,VWS V14.01,2013-02-27 10:51:00,
2013-02-27 05:52:00,39.8,35.4,29.64,WSW,248,19.5,21.0,84,0.00,,,0.01,VWS V14.01,2013-02-27 10:52:00,
2013-02-27 05:53:00,39.8,35.4,29.64,West,268,24.0,27.0,84,0.00,,,0.01,VWS V14.01,2013-02-27 10:53:00,
2013-02-27 05:54:00,39.8,35.4,29.64,WNW,286,18.0,24.0,84,0.00,,,0.01,VWS V14.01,2013-02-27 10:54:00,
2013-02-27 05:55:00,39.8,35.4,29.64,West,262,15.0,18.0,84,0.00,,,0.01,VWS V14.01,2013-02-27 10:55:00,
2013-02-27 05:56:00,39.8,35.4,29.64,WNW,285,10.5,19.5,84,0.00,,,0.01,VWS V14.01,2013-02-27 10:56:00,
2013-02-27 05:57:00,39.8,35.4,29.64,West,269,7.5,16.5,84,0.00,,,0.01,VWS V14.01,2013-02-27 10:57:00,
2013-02-27 05:58:00,39.7,35.3,29.64,WSW,251,9.0,18.0,84,0.00,,,0.01,VWS V14.01,2013-02-27 10:58:00,
2013-02-27 05:59:00,39.7,35.3,29.64,West,261,19.5,19.5,84,0.00,,,0.01,VWS V14.01,2013-02-27 10:59:00,
2013-02-27 06:00:00,39.7,35.3,29.64,WSW,240,16.5,18.0,84,0.00,,,0.01,VWS V14.01,2013-02-27 11:00:00,
2013-02-27 06:01:00,39.7,35.3,29.64,WSW,255,24.0,30.0,84,0.00,,,0.01,VWS V14.01,2013-02-27 11:01:00,
2013-02-27 06:02:00,39.7,35.3,29.65,West,267,12.0,24.0,84,0.00,,,0.01,VWS V14.01,2013-02-27 11:02:00,
2013-02-27 06:03:00,39.7,35.3,29.65,West,267,13.5,22.5,84,0.00,,,0.01,VWS V14.01,2013-02-27 11:03:00,
2013-02-27 06:04:00,39.7,35.3,29.65,SW,229,18.0,21.0,84,0.00,,,0.01,VWS V14.01,2013-02-27 11:04:00,
2013-02-27 06:05:00,39.7,35.3,29.65,WNW,284,10.5,18.0,84,0.00,,,0.01,VWS V14.01,2013-02-27 11:05:00,
2013-02-27 06:06:00,39.7,35.3,29.65,West,267,18.0,18.0,84,0.00,,,0.01,VWS V14.01,2013-02-27 11:06:00,
2013-02-27 06:07:00,39.7,35.3,29.65,West,278,12.0,19.5,84,0.00,,,0.01,VWS V14.01,2013-02-27 11:07:00,
2013-02-27 06:08:00,39.7,35.3,29.65,WSW,258,10.5,15.0,84,0.00,,,0.01,VWS V14.01,2013-02-27 11:08:00,
2013-02-27 06:09:00,39.7,35.3,29.65,West,267,12.0,18.0,84,0.00,,,0.01,VWS V14.01,2013-02-27 11:09:00,
2013-02-27 06:10:00,39.7,35.3,29.65,WSW,246,10.5,10.5,84,0.00,,,0.01,VWS V14.01,2013-02-27 11:10:00,
2013-02-27 06:11:00,39.7,35.3,29.65,WSW,251,16.5,16.5,84,0.00,,,0.01,VWS V14.01,2013-02-27 11:11:00,
2013-02-27 06:12:00,39.7,35.3,29.65,West,262,16.5,19.5,84,0.00,,,0.01,VWS V14.01,2013-02-27 11:12:00,
2013-02-27 06:13:00,39.7,35.3,29.65,West,272,10.5,24.0,84,0.00,,,0.01,VWS V14.01,2013-02-27 11:13:00,
2013-02-27 06:14:00,39.6,35.2,29.65,SW,233,13.5,25.5,84,0.00,,,0.01,VWS V14.01,2013-02-27 11:14:00,
2013-02-27 06:15:00,39.7,35.3,29.65,North,359,28.5,28.5,84,0.00,,,0.01,VWS V14.01,2013-02-27 11:15:00,
2013-02-27 06:16:00,39.7,35.3,29.65,WNW,291,16.5,28.5,84,0.00,,,0.01,VWS V14.01,2013-02-27 11:16:00,
2013-02-27 06:17:00,39.7,35.3,29.65,West,266,12.0,24.0,84,0.00,,,0.01,VWS V14.01,2013-02-27 11:17:00,
2013-02-27 06:18:00,39.6,35.2,29.65,West,260,9.0,19.5,84,0.00,,,0.01,VWS V14.01,2013-02-27 11:18:00,
2013-02-27 06:19:00,39.6,35.2,29.65,West,267,15.0,16.5,84,0.00,,,0.01,VWS V14.01,2013-02-27 11:19:00,
2013-02-27 06:20:00,39.6,35.2,29.65,SW,229,15.0,18.0,84,0.00,,,0.01,VWS V14.01,2013-02-27 11:20:00,
2013-02-27 06:21:00,39.6,35.2,29.65,West,269,13.5,18.0,84,0.00,,,0.01,VWS V14.01,2013-02-27 11:21:00,
2013-02-27 06:22:00,39.6,35.2,29.65,WSW,237,19.5,21.0,84,0.00,,,0.01,VWS V14.01,2013-02-27 11:22:00,
2013-02-27 06:23:00,39.6,35.2,29.65,West,271,9.0,19.5,84,0.00,,,0.01,VWS V14.01,2013-02-27 11:23:00,
2013-02-27 06:24:00,39.6,35.2,29.65,WSW,245,15.0,21.0,84,0.00,,,0.01,VWS V14.01,2013-02-27 11:24:00,
2013-02-27 06:25:00,39.6,35.2,29.65,WSW,248,13.5,18.0,84,0.00,,,0.01,VWS V14.01,2013-02-27 11:25:00,
2013-02-27 06:26:00,39.6,35.2,29.65,SW,234,15.0,19.5,84,0.00,,,0.01,VWS V14.01,2013-02-27 11:26:00,
2013-02-27 06:27:00,39.5,35.1,29.65,WSW,250,15.0,18.0,84,0.00,,,0.01,VWS V14.01,2013-02-27 11:27:00,
2013-02-27 06:28:00,39.6,35.2,29.65,WSW,243,12.0,16.5,84,0.00,,,0.01,VWS V14.01,2013-02-27 11:28:00,
2013-02-27 06:29:00,39.5,35.4,29.65,West,271,19.5,25.5,85,0.00,,,0.01,VWS V14.01,2013-02-27 11:29:00,
2013-02-27 06:30:00,39.5,35.1,29.65,West,262,13.5,19.5,84,0.00,,,0.01,VWS V14.01,2013-02-27 11:30:00,
2013-02-27 06:31:00,39.5,35.4,29.65,WNW,284,6.0,15.0,85,0.00,,,0.01,VWS V14.01,2013-02-27 11:31:00,
2013-02-27 06:32:00,39.5,35.4,29.65,WSW,237,9.0,13.5,85,0.00,,,0.01,VWS V14.01,2013-02-27 11:32:00,
2013-02-27 06:33:00,39.5,35.4,29.66,WSW,239,18.0,21.0,85,0.00,,,0.01,VWS V14.01,2013-02-27 11:33:00,
2013-02-27 06:34:00,39.5,35.4,29.66,SW,229,13.5,18.0,85,0.00,,,0.01,VWS V14.01,2013-02-27 11:34:00,
2013-02-27 06:35:00,39.5,35.4,29.65,West,268,13.5,19.5,85,0.00,,,0.01,VWS V14.01,2013-02-27 11:35:00,
2013-02-27 06:36:00,39.5,35.4,29.65,WSW,249,13.5,24.0,85,0.00,,,0.01,VWS V14.01,2013-02-27 11:36:00,
2013-02-27 06:37:00,39.5,35.4,29.65,SW,234,15.0,18.0,85,0.00,,,0.01,VWS V14.01,2013-02-27 11:37:00,
2013-02-27 06:38:00,39.5,35.4,29.65,WSW,246,10.5,16.5,85,0.00,,,0.01,VWS V14.01,2013-02-27 11:38:00,
2013-02-27 06:39:00,39.5,35.4,29.65,WSW,246,15.0,16.5,85,0.00,,,0.01,VWS V14.01,2013-02-27 11:39:00,
2013-02-27 06:40:00,39.5,35.4,29.66,West,263,6.0,15.0,85,0.00,,,0.01,VWS V14.01,2013-02-27 11:40:00,
2013-02-27 06:41:00,39.5,35.4,29.66,SW,231,7.5,10.5,85,0.00,,,0.01,VWS V14.01,2013-02-27 11:41:00,
2013-02-27 06:42:00,39.5,35.4,29.66,WSW,249,7.5,13.5,85,0.00,,,0.01,VWS V14.01,2013-02-27 11:42:00,
2013-02-27 06:43:00,39.5,35.4,29.66,WSW,251,9.0,12.0,85,0.00,,,0.01,VWS V14.01,2013-02-27 11:43:00,
2013-02-27 06:44:00,39.5,35.4,29.66,WSW,248,10.5,10.5,85,0.00,,,0.01,VWS V14.01,2013-02-27 11:44:00,
2013-02-27 06:45:00,39.5,35.4,29.66,SW,217,9.0,15.0,85,0.00,,,0.01,VWS V14.01,2013-02-27 11:45:00,
2013-02-27 06:46:00,39.5,35.4,29.66,WSW,244,7.5,13.5,85,0.00,,,0.01,VWS V14.01,2013-02-27 11:46:00,
2013-02-27 06:47:00,39.5,35.4,29.66,WSW,245,18.0,21.0,85,0.00,,,0.01,VWS V14.01,2013-02-27 11:47:00,
2013-02-27 06:48:00,39.5,35.4,29.66,WSW,241,16.5,21.0,85,0.00,,,0.01,VWS V14.01,2013-02-27 11:48:00,
2013-02-27 06:49:00,39.5,35.7,29.66,WSW,245,7.5,16.5,86,0.00,,,0.01,VWS V14.01,2013-02-27 11:49:00,
2013-02-27 06:50:00,39.5,35.7,29.66,WSW,243,9.0,13.5,86,0.00,,,0.01,VWS V14.01,2013-02-27 11:50:00,
2013-02-27 06:51:00,39.5,35.7,29.66,SW,234,13.5,16.5,86,0.00,,,0.01,VWS V14.01,2013-02-27 11:51:00,
2013-02-27 06:52:00,39.5,35.7,29.66,SW,230,15.0,18.0,86,0.00,,,0.01,VWS V14.01,2013-02-27 11:52:00,
2013-02-27 06:53:00,39.5,35.7,29.66,SW,220,16.5,16.5,86,0.00,,,0.01,VWS V14.01,2013-02-27 11:53:00,
2013-02-27 06:54:00,39.5,35.7,29.66,WSW,240,19.5,22.5,86,0.00,,,0.01,VWS V14.01,2013-02-27 11:54:00,
2013-02-27 06:55:00,39.5,35.7,29.66,SW,224,15.0,19.5,86,0.00,,,0.01,VWS V14.01,2013-02-27 11:55:00,
2013-02-27 06:56:00,39.4,35.6,29.66,WSW,249,15.0,18.0,86,0.00,,,0.01,VWS V14.01,2013-02-27 11:56:00,
2013-02-27 06:57:00,39.4,35.9,29.66,SSW,203,13.5,25.5,87,0.00,,,0.01,VWS V14.01,2013-02-27 11:57:00,
2013-02-27 06:58:00,39.4,35.9,29.66,WSW,246,19.5,21.0,87,0.00,,,0.01,VWS V14.01,2013-02-27 11:58:00,
2013-02-27 06:59:00,39.4,35.9,29.66,WSW,243,18.0,21.0,87,0.00,,,0.01,VWS V14.01,2013-02-27 11:59:00,
2013-02-27 07:00:00,39.4,35.9,29.66,SW,236,25.5,25.5,87,0.00,,,0.01,VWS V14.01,2013-02-27 12:00:00,
2013-02-27 07:01:00,39.3,35.8,29.67,WSW,255,13.5,22.5,87,0.00,,,0.01,VWS V14.01,2013-02-27 12:01:00,
2013-02-27 07:02:00,39.3,35.8,29.67,SW,234,19.5,22.5,87,0.00,,,0.01,VWS V14.01,2013-02-27 12:02:00,
2013-02-27 07:03:00,39.3,35.8,29.67,WSW,250,18.0,19.5,87,0.00,,,0.01,VWS V14.01,2013-02-27 12:03:00,
2013-02-27 07:04:00,39.3,35.8,29.67,West,262,13.5,21.0,87,0.00,,,0.01,VWS V14.01,2013-02-27 12:04:00,
2013-02-27 07:05:00,39.3,35.8,29.67,SW,233,21.0,21.0,87,0.00,,,0.01,VWS V14.01,2013-02-27 12:05:00,
2013-02-27 07:06:00,39.3,35.8,29.67,WSW,240,10.5,21.0,87,0.00,,,0.01,VWS V14.01,2013-02-27 12:06:00,
2013-02-27 07:07:00,39.3,35.8,29.67,West,267,16.5,28.5,87,0.00,,,0.01,VWS V14.01,2013-02-27 12:07:00,
2013-02-27 07:08:00,39.3,35.5,29.67,WSW,243,22.5,27.0,86,0.00,,,0.01,VWS V14.01,2013-02-27 12:08:00,
2013-02-27 07:09:00,39.3,35.5,29.67,WSW,248,18.0,27.0,86,0.00,,,0.01,VWS V14.01,2013-02-27 12:09:00,
2013-02-27 07:10:00,39.3,35.5,29.67,WSW,257,13.5,27.0,86,0.00,,,0.01,VWS V14.01,2013-02-27 12:10:00,
2013-02-27 07:11:00,39.3,35.5,29.67,West,260,7.5,13.5,86,0.00,,,0.01,VWS V14.01,2013-02-27 12:11:00,
2013-02-27 07:12:00,39.3,35.5,29.67,West,276,16.5,22.5,86,0.00,,,0.01,VWS V14.01,2013-02-27 12:12:00,
2013-02-27 07:13:00,39.3,35.5,29.67,West,267,13.5,16.5,86,0.00,,,0.01,VWS V14.01,2013-02-27 12:13:00,
2013-02-27 07:14:00,39.3,35.5,29.67,West,267,19.5,19.5,86,0.00,,,0.01,VWS V14.01,2013-02-27 12:14:00,
2013-02-27 07:15:00,39.3,35.5,29.67,WSW,248,21.0,22.5,86,0.00,,,0.01,VWS V14.01,2013-02-27 12:15:00,
2013-02-27 07:16:00,39.2,35.4,29.67,WSW,240,12.0,21.0,86,0.00,,,0.01,VWS V14.01,2013-02-27 12:16:00,
2013-02-27 07:17:00,39.2,35.7,29.67,SW,234,10.5,21.0,87,0.00,,,0.01,VWS V14.01,2013-02-27 12:17:00,
2013-02-27 07:18:00,39.2,35.7,29.67,SSW,207,18.0,19.5,87,0.00,,,0.01,VWS V14.01,2013-02-27 12:18:00,
2013-02-27 07:19:00,39.2,35.4,29.67,West,262,15.0,22.5,86,0.00,,,0.01,VWS V14.01,2013-02-27 12:19:00,
2013-02-27 07:20:00,39.2,35.4,29.67,West,262,21.0,22.5,86,0.00,,,0.01,VWS V14.01,2013-02-27 12:20:00,
2013-02-27 07:21:00,39.2,35.4,29.67,WSW,251,10.5,21.0,86,0.00,,,0.01,VWS V14.01,2013-02-27 12:21:00,
2013-02-27 07:22:00,39.2,35.7,29.67,WSW,252,15.0,19.5,87,0.00,,,0.01,VWS V14.01,2013-02-27 12:22:00,
2013-02-27 07:23:00,39.2,35.7,29.67,WSW,257,15.0,24.0,87,0.00,,,0.01,VWS V14.01,2013-02-27 12:23:00,
2013-02-27 07:24:00,39.2,35.4,29.68,West,268,18.0,27.0,86,0.00,,,0.01,VWS V14.01,2013-02-27 12:24:00,
2013-02-27 07:25:00,39.2,35.4,29.67,West,259,13.5,27.0,86,0.00,,,0.01,VWS V14.01,2013-02-27 12:25:00,
2013-02-27 07:26:00,39.2,35.4,29.67,West,274,22.5,24.0,86,0.00,,,0.01,VWS V14.01,2013-02-27 12:26:00,
2013-02-27 07:27:00,39.2,35.4,29.67,SW,216,22.5,22.5,86,0.00,,,0.01,VWS V14.01,2013-02-27 12:27:00,
2013-02-27 07:28:00,39.2,35.4,29.68,WSW,254,19.5,31.5,86,0.00,,,0.01,VWS V14.01,2013-02-27 12:28:00,
2013-02-27 07:29:00,39.2,35.4,29.68,WSW,251,22.5,22.5,86,0.00,,,0.01,VWS V14.01,2013-02-27 12:29:00,
2013-02-27 07:30:00,39.2,35.4,29.68,West,275,22.5,25.5,86,0.00,,,0.01,VWS V14.01,2013-02-27 12:30:00,
2013-02-27 07:31:00,39.2,35.4,29.68,WSW,250,18.0,24.0,86,0.00,,,0.01,VWS V14.01,2013-02-27 12:31:00,
2013-02-27 07:32:00,39.2,35.1,29.68,WSW,257,19.5,30.0,85,0.00,,,0.01,VWS V14.01,2013-02-27 12:32:00,
2013-02-27 07:33:00,39.2,35.1,29.68,West,263,24.0,30.0,85,0.00,,,0.01,VWS V14.01,2013-02-27 12:33:00,
2013-02-27 07:34:00,39.2,35.1,29.68,West,266,25.5,27.0,85,0.00,,,0.01,VWS V14.01,2013-02-27 12:34:00,
2013-02-27 07:35:00,39.2,35.1,29.68,WSW,241,31.5,31.5,85,0.00,,,0.01,VWS V14.01,2013-02-27 12:35:00,
2013-02-27 07:36:00,39.3,34.9,29.68,WSW,243,25.5,37.5,84,0.00,,,0.01,VWS V14.01,2013-02-27 12:36:00,
2013-02-27 07:37:00,39.3,34.9,29.68,WSW,249,16.5,27.0,84,0.00,,,0.01,VWS V14.01,2013-02-27 12:37:00,
2013-02-27 07:38:00,39.3,34.9,29.68,WSW,257,15.0,28.5,84,0.00,,,0.01,VWS V14.01,2013-02-27 12:38:00,
2013-02-27 07:39:00,39.3,34.9,29.68,WSW,243,12.0,21.0,84,0.00,,,0.01,VWS V14.01,2013-02-27 12:39:00,
2013-02-27 07:40:00,39.3,34.9,29.68,SW,230,13.5,21.0,84,0.00,,,0.01,VWS V14.01,2013-02-27 12:40:00,
2013-02-27 07:41:00,39.3,35.2,29.68,WSW,254,12.0,19.5,85,0.00,,,0.01,VWS V14.01,2013-02-27 12:41:00,
2013-02-27 07:42:00,39.3,35.2,29.68,WSW,258,16.5,22.5,85,0.00,,,0.01,VWS V14.01,2013-02-27 12:42:00,
2013-02-27 07:43:00,39.3,34.9,29.68,WSW,247,16.5,22.5,84,0.00,,,0.01,VWS V14.01,2013-02-27 12:43:00,
2013-02-27 07:44:00,39.3,34.9,29.68,WSW,250,18.0,28.5,84,0.00,,,0.01,VWS V14.01,2013-02-27 12:44:00,
2013-02-27 07:45:00,39.3,34.9,29.68,WSW,257,19.5,28.5,84,0.00,,,0.01,VWS V14.01,2013-02-27 12:45:00,
2013-02-27 07:46:00,39.3,34.9,29.68,WSW,254,19.5,27.0,84,0.00,,,0.01,VWS V14.01,2013-02-27 12:46:00,
2013-02-27 07:47:00,39.3,34.9,29.68,WSW,237,25.5,27.0,84,0.00,,,0.01,VWS V14.01,2013-02-27 12:47:00,
2013-02-27 07:48:00,39.3,34.9,29.69,WSW,246,15.0,25.5,84,0.00,,,0.01,VWS V14.01,2013-02-27 12:48:00,
2013-02-27 07:49:00,39.3,34.9,29.69,SW,234,19.5,19.5,84,0.00,,,0.01,VWS V14.01,2013-02-27 12:49:00,
2013-02-27 07:50:00,39.3,34.9,29.69,West,274,18.0,22.5,84,0.00,,,0.01,VWS V14.01,2013-02-27 12:50:00,
2013-02-27 07:51:00,39.3,34.9,29.69,WSW,250,15.0,22.5,84,0.00,,,0.01,VWS V14.01,2013-02-27 12:51:00,
2013-02-27 07:52:00,39.3,34.9,29.69,WSW,244,19.5,24.0,84,0.00,,,0.01,VWS V14.01,2013-02-27 12:52:00,
2013-02-27 07:53:00,39.3,34.9,29.69,West,269,10.5,25.5,84,0.00,,,0.01,VWS V14.01,2013-02-27 12:53:00,
2013-02-27 07:54:00,39.3,36.4,29.69,WSW,256,21.0,27.0,89,0.00,,,0.01,VWS V14.01,2013-02-27 12:54:00,
2013-02-27 07:59:00,39.2,36.8,29.69,WSW,243,15.0,15.0,91,0.00,,,0.01,VWS V14.01,2013-02-27 12:59:00,
2013-02-27 08:04:00,39.1,36.7,29.71,WSW,255,12.0,18.0,91,0.00,,,0.01,VWS V14.01,2013-02-27 13:04:00,
2013-02-27 08:09:00,39.0,36.9,29.71,West,281,9.0,15.0,92,0.00,,,0.01,VWS V14.01,2013-02-27 13:09:00,
2013-02-27 08:14:00,38.9,36.8,29.71,WSW,244,24.0,24.0,92,0.00,,,0.01,VWS V14.01,2013-02-27 13:14:00,
2013-02-27 08:19:00,38.7,36.8,29.71,SW,236,10.5,16.5,93,0.00,,,0.01,VWS V14.01,2013-02-27 13:19:00,
2013-02-27 08:24:00,38.5,36.9,29.72,WSW,253,18.0,25.5,94,0.00,,,0.01,VWS V14.01,2013-02-27 13:24:00,
2013-02-27 08:29:00,38.4,36.8,29.72,West,265,10.5,12.0,94,0.00,,,0.01,VWS V14.01,2013-02-27 13:29:00,
2013-02-27 08:34:00,38.4,37.1,29.72,WSW,254,15.0,18.0,95,0.00,,,0.01,VWS V14.01,2013-02-27 13:34:00,
2013-02-27 08:39:00,38.3,37.0,29.72,WSW,246,12.0,15.0,95,0.00,,,0.01,VWS V14.01,2013-02-27 13:39:00,
2013-02-27 08:44:00,38.3,37.0,29.73,WSW,252,13.5,15.0,95,0.00,,,0.01,VWS V14.01,2013-02-27 13:44:00,
2013-02-27 08:49:00,38.3,37.0,29.73,WSW,243,12.0,18.0,95,0.00,,,0.01,VWS V14.01,2013-02-27 13:49:00,
2013-02-27 08:54:00,38.2,36.9,29.72,WSW,239,10.5,15.0,95,0.00,,,0.01,VWS V14.01,2013-02-27 13:54:00,
2013-02-27 08:59:00,38.2,37.2,29.72,WSW,245,15.0,18.0,96,0.00,,,0.01,VWS V14.01,2013-02-27 13:59:00,
2013-02-27 09:04:00,38.2,37.2,29.72,WSW,255,10.5,12.0,96,0.00,,,0.01,VWS V14.01,2013-02-27 14:04:00,
2013-02-27 09:09:00,38.2,37.2,29.73,SW,231,18.0,19.5,96,0.00,,,0.01,VWS V14.01,2013-02-27 14:09:00,
2013-02-27 09:14:00,38.2,37.2,29.73,West,264,12.0,18.0,96,0.00,,,0.01,VWS V14.01,2013-02-27 14:14:00,
2013-02-27 09:19:00,38.2,37.2,29.73,SW,229,10.5,13.5,96,0.00,,,0.01,VWS V14.01,2013-02-27 14:19:00,
2013-02-27 09:24:00,38.2,37.2,29.73,SW,231,13.5,16.5,96,0.00,,,0.01,VWS V14.01,2013-02-27 14:24:00,
2013-02-27 09:29:00,38.1,37.1,29.73,WSW,258,7.5,12.0,96,0.00,,,0.01,VWS V14.01,2013-02-27 14:29:00,
2013-02-27 09:34:00,38.1,37.1,29.73,SW,236,18.0,18.0,96,0.00,,,0.01,VWS V14.01,2013-02-27 14:34:00,
2013-02-27 09:39:00,38.0,37.0,29.73,WSW,240,13.5,22.5,96,0.00,,,0.01,VWS V14.01,2013-02-27 14:39:00,
2013-02-27 09:44:00,38.0,37.0,29.73,West,274,9.0,18.0,96,0.00,,,0.01,VWS V14.01,2013-02-27 14:44:00,
2013-02-27 09:49:00,38.0,37.0,29.73,WSW,240,15.0,22.5,96,0.00,,,0.01,VWS V14.01,2013-02-27 14:49:00,
2013-02-27 09:54:00,37.9,36.9,29.73,West,276,19.5,19.5,96,0.00,,,0.01,VWS V14.01,2013-02-27 14:54:00,
2013-02-27 09:59:00,37.9,36.9,29.73,WSW,257,6.0,10.5,96,0.00,,,0.01,VWS V14.01,2013-02-27 14:59:00,
2013-02-27 10:04:00,38.0,37.0,29.73,SW,234,16.5,16.5,96,0.00,,,0.01,VWS V14.01,2013-02-27 15:04:00,
2013-02-27 10:09:00,38.2,36.9,29.73,WSW,248,15.0,25.5,95,0.01,,,0.02,VWS V14.01,2013-02-27 15:09:00,
2013-02-27 10:14:00,38.4,36.8,29.73,SW,223,25.5,27.0,94,0.01,,,0.02,VWS V14.01,2013-02-27 15:14:00,
2013-02-27 10:19:00,38.6,37.0,29.73,WSW,253,19.5,22.5,94,0.01,,,0.02,VWS V14.01,2013-02-27 15:19:00,
2013-02-27 10:24:00,38.7,36.8,29.73,SW,215,9.0,18.0,93,0.01,,,0.02,VWS V14.01,2013-02-27 15:24:00,
2013-02-27 10:29:00,38.8,37.0,29.73,SW,233,13.5,18.0,93,0.01,,,0.02,VWS V14.01,2013-02-27 15:29:00,
2013-02-27 10:34:00,38.7,37.1,29.73,West,261,15.0,18.0,94,0.01,,,0.02,VWS V14.01,2013-02-27 15:34:00,
2013-02-27 10:39:00,38.7,37.1,29.73,SW,215,18.0,18.0,94,0.01,,,0.02,VWS V14.01,2013-02-27 15:39:00,
2013-02-27 10:44:00,38.4,36.8,29.73,SSW,209,21.0,28.5,94,0.01,,,0.02,VWS V14.01,2013-02-27 15:44:00,
2013-02-27 10:49:00,38.1,36.8,29.73,WSW,255,15.0,15.0,95,0.02,,,0.03,VWS V14.01,2013-02-27 15:49:00,
2013-02-27 10:54:00,38.2,36.9,29.73,WSW,245,15.0,18.0,95,0.02,,,0.03,VWS V14.01,2013-02-27 15:54:00,
2013-02-27 10:59:00,38.4,36.8,29.72,SW,219,16.5,22.5,94,0.02,,,0.03,VWS V14.01,2013-02-27 15:59:00,
2013-02-27 11:04:00,38.6,37.3,29.72,WSW,247,15.0,15.0,95,0.02,,,0.03,VWS V14.01,2013-02-27 16:04:00,
2013-02-27 11:09:00,38.7,36.8,29.73,WSW,244,24.0,27.0,93,0.01,,,0.03,VWS V14.01,2013-02-27 16:09:00,
2013-02-27 11:14:00,38.8,37.0,29.72,WSW,237,16.5,21.0,93,0.01,,,0.03,VWS V14.01,2013-02-27 16:14:00,
2013-02-27 11:19:00,39.1,37.0,29.72,WSW,246,18.0,19.5,92,0.01,,,0.03,VWS V14.01,2013-02-27 16:19:00,
2013-02-27 11:24:00,39.2,37.3,29.72,WSW,243,13.5,21.0,93,0.01,,,0.03,VWS V14.01,2013-02-27 16:24:00,
2013-02-27 11:29:00,39.1,37.0,29.72,WSW,248,19.5,19.5,92,0.01,,,0.03,VWS V14.01,2013-02-27 16:29:00,
2013-02-27 11:34:00,39.2,37.1,29.72,SW,233,22.5,22.5,92,0.01,,,0.03,VWS V14.01,2013-02-27 16:34:00,
2013-02-27 11:39:00,39.2,37.6,29.72,SW,229,13.5,16.5,94,0.01,,,0.03,VWS V14.01,2013-02-27 16:39:00,
2013-02-27 11:44:00,39.2,37.3,29.72,WSW,254,21.0,24.0,93,0.00,,,0.03,VWS V14.01,2013-02-27 16:44:00,
2013-02-27 11:49:00,39.2,37.1,29.72,WSW,253,19.5,31.5,92,0.00,,,0.03,VWS V14.01,2013-02-27 16:49:00,
2013-02-27 11:54:00,39.5,37.4,29.72,SW,231,19.5,27.0,92,0.00,,,0.03,VWS V14.01,2013-02-27 16:54:00,
2013-02-27 11:59:00,39.6,36.9,29.72,SW,224,12.0,21.0,90,0.00,,,0.03,VWS V14.01,2013-02-27 16:59:00,
2013-02-27 12:04:00,39.7,37.0,29.72,West,276,10.5,19.5,90,0.00,,,0.03,VWS V14.01,2013-02-27 17:04:00,
2013-02-27 12:09:00,39.8,37.1,29.72,WSW,246,22.5,24.0,90,0.00,,,0.03,VWS V14.01,2013-02-27 17:09:00,
2013-02-27 12:14:00,39.9,37.2,29.72,WSW,251,15.0,15.0,90,0.00,,,0.03,VWS V14.01,2013-02-27 17:14:00,
2013-02-27 12:19:00,39.7,36.7,29.72,West,265,18.0,18.0,89,0.00,,,0.03,VWS V14.01,2013-02-27 17:19:00,
2013-02-27 12:24:00,39.7,36.7,29.72,WSW,249,13.5,22.5,89,0.00,,,0.03,VWS V14.01,2013-02-27 17:24:00,
2013-02-27 12:29:00,39.7,36.4,29.72,WSW,253,13.5,21.0,88,0.00,,,0.03,VWS V14.01,2013-02-27 17:29:00,
2013-02-27 12:34:00,39.5,36.5,29.72,West,276,7.5,18.0,89,0.00,,,0.03,VWS V14.01,2013-02-27 17:34:00,
2013-02-27 12:39:00,38.1,35.7,29.73,NW,324,15.0,24.0,91,0.00,,,0.03,VWS V14.01,2013-02-27 17:39:00,
2013-02-27 12:44:00,37.3,35.7,29.73,West,268,18.0,19.5,94,0.01,,,0.04,VWS V14.01,2013-02-27 17:44:00,
2013-02-27 12:49:00,36.9,35.6,29.73,West,274,16.5,19.5,95,0.01,,,0.04,VWS V14.01,2013-02-27 17:49:00,
2013-02-27 12:54:00,36.8,35.8,29.73,SW,231,13.5,22.5,96,0.02,,,0.05,VWS V14.01,2013-02-27 17:54:00,
2013-02-27 12:59:00,36.8,35.8,29.73,WSW,257,16.5,16.5,96,0.02,,,0.05,VWS V14.01,2013-02-27 17:59:00,
2013-02-27 13:04:00,37.0,36.0,29.72,WSW,254,12.0,15.0,96,0.02,,,0.05,VWS V14.01,2013-02-27 18:04:00,
2013-02-27 13:09:00,37.2,36.2,29.72,WSW,241,13.5,18.0,96,0.02,,,0.05,VWS V14.01,2013-02-27 18:09:00,
2013-02-27 13:14:00,37.2,35.9,29.72,WSW,243,22.5,22.5,95,0.02,,,0.05,VWS V14.01,2013-02-27 18:14:00,
2013-02-27 13:19:00,37.3,36.0,29.73,West,272,18.0,19.5,95,0.02,,,0.05,VWS V14.01,2013-02-27 18:19:00,
2013-02-27 13:24:00,37.3,36.0,29.72,WNW,290,10.5,10.5,95,0.02,,,0.05,VWS V14.01,2013-02-27 18:24:00,
2013-02-27 13:29:00,37.3,35.7,29.72,WSW,256,7.5,10.5,94,0.02,,,0.05,VWS V14.01,2013-02-27 18:29:00,
2013-02-27 13:34:00,37.5,35.9,29.72,WSW,255,12.0,16.5,94,0.02,,,0.05,VWS V14.01,2013-02-27 18:34:00,
2013-02-27 13:39:00,37.6,36.0,29.72,WSW,251,15.0,16.5,94,0.02,,,0.05,VWS V14.01,2013-02-27 18:39:00,
2013-02-27 13:44:00,37.6,36.0,29.72,WSW,243,10.5,10.5,94,0.01,,,0.05,VWS V14.01,2013-02-27 18:44:00,
2013-02-27 13:49:00,37.5,35.7,29.72,WSW,253,16.5,16.5,93,0.01,,,0.05,VWS V14.01,2013-02-27 18:49:00,
2013-02-27 13:54:00,37.5,35.9,29.71,WSW,248,9.0,18.0,94,0.00,,,0.05,VWS V14.01,2013-02-27 18:54:00,
2013-02-27 13:59:00,37.5,36.2,29.71,SW,230,7.5,9.0,95,0.00,,,0.05,VWS V14.01,2013-02-27 18:59:00,
2013-02-27 14:04:00,37.5,36.2,29.71,WSW,245,13.5,16.5,95,0.00,,,0.05,VWS V14.01,2013-02-27 19:04:00,
2013-02-27 14:09:00,37.6,36.0,29.71,WSW,255,18.0,18.0,94,0.00,,,0.05,VWS V14.01,2013-02-27 19:09:00,
2013-02-27 14:14:00,37.6,36.0,29.71,WSW,249,18.0,18.0,94,0.00,,,0.05,VWS V14.01,2013-02-27 19:14:00,
2013-02-27 14:19:00,37.4,35.8,29.71,WSW,246,22.5,22.5,94,0.00,,,0.05,VWS V14.01,2013-02-27 19:19:00,
2013-02-27 14:24:00,37.4,35.8,29.72,WSW,254,16.5,19.5,94,0.00,,,0.05,VWS V14.01,2013-02-27 19:24:00,
2013-02-27 14:29:00,37.3,35.7,29.72,West,265,7.5,12.0,94,0.00,,,0.05,VWS V14.01,2013-02-27 19:29:00,
2013-02-27 14:34:00,37.3,35.5,29.72,West,269,12.0,13.5,93,0.00,,,0.05,VWS V14.01,2013-02-27 19:34:00,
2013-02-27 14:39:00,37.0,35.2,29.73,West,260,13.5,15.0,93,0.00,,,0.05,VWS V14.01,2013-02-27 19:39:00,
2013-02-27 14:44:00,36.6,34.8,29.72,West,274,19.5,19.5,93,0.00,,,0.05,VWS V14.01,2013-02-27 19:44:00,
2013-02-27 14:49:00,36.4,34.6,29.72,West,268,13.5,16.5,93,0.00,,,0.05,VWS V14.01,2013-02-27 19:49:00,
2013-02-27 14:54:00,36.4,34.6,29.73,WSW,255,25.5,25.5,93,0.00,,,0.05,VWS V14.01,2013-02-27 19:54:00,
2013-02-27 14:59:00,36.4,34.6,29.73,WSW,257,16.5,22.5,93,0.00,,,0.05,VWS V14.01,2013-02-27 19:59:00,
2013-02-27 15:04:00,36.5,34.7,29.73,WSW,246,21.0,22.5,93,0.00,,,0.05,VWS V14.01,2013-02-27 20:04:00,
2013-02-27 15:09:00,36.7,34.6,29.73,West,269,7.5,13.5,92,0.00,,,0.05,VWS V14.01,2013-02-27 20:09:00,
2013-02-27 15:14:00,36.8,34.4,29.73,WSW,241,12.0,22.5,91,0.00,,,0.05,VWS V14.01,2013-02-27 20:14:00,
2013-02-27 15:19:00,36.9,34.5,29.73,West,262,18.0,24.0,91,0.00,,,0.05,VWS V14.01,2013-02-27 20:19:00,
2013-02-27 15:24:00,36.9,34.5,29.73,WSW,243,22.5,22.5,91,0.00,,,0.05,VWS V14.01,2013-02-27 20:24:00,
2013-02-27 15:29:00,36.9,34.5,29.73,WSW,239,15.0,15.0,91,0.00,,,0.05,VWS V14.01,2013-02-27 20:29:00,
2013-02-27 15:34:00,36.9,34.5,29.73,WSW,244,15.0,19.5,91,0.00,,,0.05,VWS V14.01,2013-02-27 20:34:00,
2013-02-27 15:39:00,37.0,34.6,29.73,SW,234,16.5,24.0,91,0.00,,,0.05,VWS V14.01,2013-02-27 20:39:00,
2013-02-27 15:44:00,37.2,34.5,29.74,WSW,248,12.0,22.5,90,0.00,,,0.05,VWS V14.01,2013-02-27 20:44:00,
2013-02-27 15:49:00,37.2,34.3,29.74,SW,234,22.5,22.5,89,0.00,,,0.05,VWS V14.01,2013-02-27 20:49:00,
2013-02-27 15:54:00,37.3,34.4,29.74,WNW,296,16.5,18.0,89,0.00,,,0.05,VWS V14.01,2013-02-27 20:54:00,
2013-02-27 15:59:00,37.4,34.2,29.74,West,269,15.0,16.5,88,0.00,,,0.05,VWS V14.01,2013-02-27 20:59:00,
2013-02-27 16:04:00,37.4,34.5,29.74,WSW,237,15.0,15.0,89,0.00,,,0.05,VWS V14.01,2013-02-27 21:04:00,
2013-02-27 16:09:00,37.4,34.2,29.74,West,261,19.5,25.5,88,0.00,,,0.05,VWS V14.01,2013-02-27 21:09:00,
2013-02-27 16:14:00,37.4,34.2,29.74,West,276,15.0,15.0,88,0.00,,,0.05,VWS V14.01,2013-02-27 21:14:00,
2013-02-27 16:19:00,37.5,34.0,29.74,WSW,258,10.5,13.5,87,0.00,,,0.05,VWS V14.01,2013-02-27 21:19:00,
2013-02-27 16:24:00,37.5,34.3,29.75,WSW,252,10.5,19.5,88,0.00,,,0.05,VWS V14.01,2013-02-27 21:24:00,
2013-02-27 16:29:00,37.5,34.3,29.75,WSW,246,15.0,19.5,88,0.00,,,0.05,VWS V14.01,2013-02-27 21:29:00,
2013-02-27 16:34:00,37.5,34.3,29.75,West,270,10.5,19.5,88,0.00,,,0.05,VWS V14.01,2013-02-27 21:34:00,
2013-02-27 16:39:00,37.6,34.4,29.75,WSW,246,13.5,18.0,88,0.00,,,0.05,VWS V14.01,2013-02-27 21:39:00,
2013-02-27 16:44:00,37.5,34.3,29.75,WSW,246,13.5,18.0,88,0.00,,,0.05,VWS V14.01,2013-02-27 21:44:00,
2013-02-27 16:49:00,37.5,34.3,29.75,WSW,251,13.5,22.5,88,0.00,,,0.05,VWS V14.01,2013-02-27 21:49:00,
2013-02-27 16:54:00,37.4,34.2,29.75,WSW,243,16.5,16.5,88,0.00,,,0.05,VWS V14.01,2013-02-27 21:54:00,
2013-02-27 16:59:00,37.4,34.2,29.75,WSW,239,18.0,21.0,88,0.00,,,0.05,VWS V14.01,2013-02-27 21:59:00,
2013-02-27 17:04:00,37.3,34.1,29.75,SW,236,12.0,21.0,88,0.00,,,0.05,VWS V14.01,2013-02-27 22:04:00,
2013-02-27 17:09:00,37.1,33.9,29.75,SW,224,10.5,13.5,88,0.00,,,0.05,VWS V14.01,2013-02-27 22:09:00,
2013-02-27 17:14:00,37.0,33.8,29.75,SW,229,16.5,22.5,88,0.00,,,0.05,VWS V14.01,2013-02-27 22:14:00,
2013-02-27 17:19:00,36.8,33.9,29.75,WSW,240,15.0,18.0,89,0.00,,,0.05,VWS V14.01,2013-02-27 22:19:00,
2013-02-27 17:24:00,36.7,33.8,29.75,WSW,243,16.5,21.0,89,0.00,,,0.05,VWS V14.01,2013-02-27 22:24:00,
2013-02-27 17:29:00,36.5,33.6,29.76,SW,221,13.5,16.5,89,0.00,,,0.05,VWS V14.01,2013-02-27 22:29:00,
2013-02-27 17:34:00,36.4,33.8,29.76,WSW,243,10.5,15.0,90,0.00,,,0.05,VWS V14.01,2013-02-27 22:34:00,
2013-02-27 17:39:00,36.4,33.8,29.76,WSW,240,12.0,21.0,90,0.00,,,0.05,VWS V14.01,2013-02-27 22:39:00,
2013-02-27 17:44:00,36.4,33.8,29.76,WSW,244,12.0,18.0,90,0.00,,,0.05,VWS V14.01,2013-02-27 22:44:00,
2013-02-27 17:49:00,36.5,33.8,29.76,SW,220,10.5,13.5,90,0.00,,,0.05,VWS V14.01,2013-02-27 22:49:00,
2013-02-27 17:54:00,36.5,33.6,29.76,WSW,243,15.0,16.5,89,0.00,,,0.05,VWS V14.01,2013-02-27 22:54:00,
2013-02-27 17:58:00,36.6,33.7,29.76,SW,230,19.5,19.5,89,0.00,,,0.05,VWS V14.01,2013-02-27 22:58:00,
2013-02-27 18:04:00,36.7,33.8,29.76,WSW,253,15.0,15.0,89,0.00,,,0.05,VWS V14.01,2013-02-27 23:04:00,
2013-02-27 18:08:00,36.7,33.8,29.76,WSW,238,13.5,15.0,89,0.00,,,0.05,VWS V14.01,2013-02-27 23:08:00,
2013-02-27 18:13:00,36.7,33.8,29.76,SSW,194,6.0,21.0,89,0.00,,,0.05,VWS V14.01,2013-02-27 23:13:00,
2013-02-27 18:18:00,36.7,34.0,29.76,WSW,251,15.0,19.5,90,0.00,,,0.05,VWS V14.01,2013-02-27 23:18:00,
2013-02-27 18:23:00,36.5,33.8,29.76,SW,224,9.0,12.0,90,0.00,,,0.05,VWS V14.01,2013-02-27 23:23:00,
2013-02-27 18:28:00,36.4,33.8,29.77,SW,219,16.5,16.5,90,0.00,,,0.05,VWS V14.01,2013-02-27 23:28:00,
2013-02-27 18:33:00,36.3,33.9,29.77,WSW,246,13.5,24.0,91,0.00,,,0.05,VWS V14.01,2013-02-27 23:33:00,
2013-02-27 18:38:00,36.2,34.1,29.77,SW,219,16.5,18.0,92,0.00,,,0.05,VWS V14.01,2013-02-27 23:38:00,
2013-02-27 18:43:00,36.0,33.9,29.77,WSW,247,10.5,15.0,92,0.00,,,0.05,VWS V14.01,2013-02-27 23:43:00,
2013-02-27 18:48:00,35.9,33.8,29.78,West,269,7.5,12.0,92,0.00,,,0.05,VWS V14.01,2013-02-27 23:48:00,
2013-02-27 18:53:00,35.8,34.0,29.78,WSW,257,13.5,19.5,93,0.00,,,0.05,VWS V14.01,2013-02-27 23:53:00,
2013-02-27 18:58:00,35.7,33.9,29.78,WSW,243,10.5,13.5,93,0.00,,,0.05,VWS V14.01,2013-02-27 23:58:00,
2013-02-27 19:03:00,35.6,33.8,29.78,SW,234,9.0,12.0,93,0.00,,,0.05,VWS V14.01,2013-02-28 00:03:00,
2013-02-27 19:08:00,35.6,33.8,29.78,WSW,246,9.0,15.0,93,0.00,,,0.05,VWS V14.01,2013-02-28 00:08:00,
2013-02-27 19:13:00,35.7,33.9,29.78,West,263,6.0,12.0,93,0.00,,,0.05,VWS V14.01,2013-02-28 00:13:00,
2013-02-27 19:18:00,35.7,33.9,29.78,SW,230,10.5,15.0,93,0.00,,,0.05,VWS V14.01,2013-02-28 00:18:00,
2013-02-27 19:23:00,35.8,34.2,29.78,WSW,246,12.0,13.5,94,0.00,,,0.05,VWS V14.01,2013-02-28 00:23:00,
2013-02-27 19:28:00,35.9,34.1,29.78,WSW,239,10.5,13.5,93,0.00,,,0.05,VWS V14.01,2013-02-28 00:28:00,
2013-02-27 19:33:00,36.0,34.2,29.78,WSW,243,16.5,16.5,93,0.00,,,0.05,VWS V14.01,2013-02-28 00:33:00,
2013-02-27 19:38:00,36.1,34.0,29.78,SW,217,10.5,13.5,92,0.00,,,0.05,VWS V14.01,2013-02-28 00:38:00,
2013-02-27 19:43:00,36.1,34.0,29.78,WSW,237,15.0,18.0,92,0.00,,,0.05,VWS V14.01,2013-02-28 00:43:00,
2013-02-27 19:48:00,36.2,33.8,29.78,WSW,249,7.5,16.5,91,0.00,,,0.05,VWS V14.01,2013-02-28 00:48:00,
2013-02-27 19:53:00,36.2,33.8,29.78,SW,226,18.0,18.0,91,0.00,,,0.05,VWS V14.01,2013-02-28 00:53:00,
2013-02-27 19:58:00,36.2,33.8,29.78,SW,236,13.5,18.0,91,0.00,,,0.05,VWS V14.01,2013-02-28 00:58:00,
2013-02-27 20:03:00,36.2,33.8,29.78,SW,231,25.5,25.5,91,0.00,,,0.05,VWS V14.01,2013-02-28 01:03:00,
2013-02-27 20:08:00,36.3,33.9,29.78,WSW,246,13.5,16.5,91,0.00,,,0.05,VWS V14.01,2013-02-28 01:08:00,
2013-02-27 20:13:00,36.3,33.7,29.78,WSW,244,21.0,21.0,90,0.00,,,0.05,VWS V14.01,2013-02-28 01:13:00,
2013-02-27 20:18:00,36.3,33.7,29.78,WSW,253,13.5,18.0,90,0.00,,,0.05,VWS V14.01,2013-02-28 01:18:00,
2013-02-27 20:23:00,36.3,33.7,29.78,WSW,240,13.5,22.5,90,0.00,,,0.05,VWS V14.01,2013-02-28 01:23:00,
2013-02-27 20:28:00,36.2,33.3,29.78,West,262,12.0,21.0,89,0.00,,,0.05,VWS V14.01,2013-02-28 01:28:00,
2013-02-27 20:33:00,36.1,33.5,29.78,SW,226,18.0,18.0,90,0.00,,,0.05,VWS V14.01,2013-02-28 01:33:00,
2013-02-27 20:38:00,36.0,33.4,29.78,WSW,240,12.0,13.5,90,0.00,,,0.05,VWS V14.01,2013-02-28 01:38:00,
2013-02-27 20:43:00,35.8,33.2,29.78,SW,219,13.5,13.5,90,0.00,,,0.05,VWS V14.01,2013-02-28 01:43:00,
2013-02-27 20:48:00,35.8,33.2,29.78,WSW,257,4.5,9.0,90,0.00,,,0.05,VWS V14.01,2013-02-28 01:48:00,
2013-02-27 20:53:00,35.8,33.2,29.78,SW,227,15.0,19.5,90,0.00,,,0.05,VWS V14.01,2013-02-28 01:53:00,
2013-02-27 20:59:00,35.7,34.9,29.78,West,278,7.5,7.5,97,0.00,,,0.05,VWS V14.01,2013-02-28 01:59:00,
2013-02-27 21:04:00,35.7,34.9,29.78,SW,234,16.5,19.5,97,0.00,,,0.05,VWS V14.01,2013-02-28 02:04:00,
2013-02-27 21:09:00,35.8,35.0,29.78,SSW,213,12.0,13.5,97,0.00,,,0.05,VWS V14.01,2013-02-28 02:09:00,
2013-02-27 21:14:00,35.9,35.1,29.78,SW,229,12.0,18.0,97,0.00,,,0.05,VWS V14.01,2013-02-28 02:14:00,
2013-02-27 21:19:00,35.9,35.1,29.77,West,265,13.5,21.0,97,0.00,,,0.05,VWS V14.01,2013-02-28 02:19:00,
2013-02-27 21:24:00,35.8,35.0,29.77,West,274,7.5,18.0,97,0.00,,,0.05,VWS V14.01,2013-02-28 02:24:00,
2013-02-27 21:29:00,35.8,35.0,29.77,WSW,246,9.0,13.5,97,0.00,,,0.05,VWS V14.01,2013-02-28 02:29:00,
2013-02-27 21:34:00,35.8,35.0,29.78,WSW,244,10.5,16.5,97,0.00,,,0.05,VWS V14.01,2013-02-28 02:34:00,
2013-02-27 21:39:00,35.8,35.0,29.77,WSW,243,15.0,18.0,97,0.00,,,0.05,VWS V14.01,2013-02-28 02:39:00,
2013-02-27 21:44:00,35.7,35.2,29.77,WSW,250,13.5,18.0,98,0.00,,,0.05,VWS V14.01,2013-02-28 02:44:00,
2013-02-27 21:49:00,35.7,35.2,29.77,WSW,237,10.5,12.0,98,0.00,,,0.05,VWS V14.01,2013-02-28 02:49:00,
2013-02-27 21:54:00,35.6,35.3,29.78,West,265,10.5,16.5,99,0.00,,,0.05,VWS V14.01,2013-02-28 02:54:00,
2013-02-27 21:59:00,35.5,35.2,29.78,West,265,6.0,10.5,99,0.00,,,0.05,VWS V14.01,2013-02-28 02:59:00,
2013-02-27 22:04:00,35.4,35.2,29.78,WNW,299,9.0,12.0,99,0.00,,,0.05,VWS V14.01,2013-02-28 03:04:00,
2013-02-27 22:09:00,35.3,35.3,29.78,WNW,283,9.0,9.0,100,0.00,,,0.05,VWS V14.01,2013-02-28 03:09:00,
2013-02-27 22:14:00,35.2,35.2,29.78,NW,324,7.5,7.5,100,0.00,,,0.05,VWS V14.01,2013-02-28 03:14:00,
2013-02-27 22:19:00,34.8,34.8,29.78,WSW,252,10.5,15.0,100,0.00,,,0.05,VWS V14.01,2013-02-28 03:19:00,
2013-02-27 22:24:00,34.1,34.1,29.78,West,269,15.0,18.0,100,0.00,,,0.05,VWS V14.01,2013-02-28 03:24:00,
2013-02-27 22:29:00,33.7,33.7,29.78,WNW,285,12.0,19.5,100,0.00,,,0.05,VWS V14.01,2013-02-28 03:29:00,
2013-02-27 22:34:00,33.5,33.5,29.78,West,264,12.0,13.5,100,0.00,,,0.05,VWS V14.01,2013-02-28 03:34:00,
2013-02-27 22:39:00,33.4,33.4,29.78,WNW,284,16.5,21.0,100,0.00,,,0.05,VWS V14.01,2013-02-28 03:39:00,
2013-02-27 22:44:00,33.3,33.3,29.78,West,275,13.5,16.5,100,0.00,,,0.05,VWS V14.01,2013-02-28 03:44:00,
2013-02-27 22:49:00,33.3,33.3,29.78,WNW,299,9.0,15.0,100,0.00,,,0.05,VWS V14.01,2013-02-28 03:49:00,
2013-02-27 22:54:00,33.3,33.3,29.78,West,281,12.0,13.5,100,0.00,,,0.05,VWS V14.01,2013-02-28 03:54:00,
2013-02-27 22:59:00,33.4,33.4,29.78,West,271,10.5,12.0,100,0.00,,,0.05,VWS V14.01,2013-02-28 03:59:00,
2013-02-27 23:04:00,33.5,33.5,29.78,WNW,293,9.0,12.0,100,0.00,,,0.05,VWS V14.01,2013-02-28 04:04:00,
2013-02-27 23:09:00,33.5,33.5,29.78,West,274,9.0,12.0,100,0.00,,,0.05,VWS V14.01,2013-02-28 04:09:00,
2013-02-27 23:15:00,33.6,33.6,29.78,West,272,9.0,10.5,100,0.00,,,0.05,VWS V14.01,2013-02-28 04:15:00,
2013-02-27 23:20:00,33.6,33.6,29.78,WSW,243,10.5,12.0,100,0.00,,,0.05,VWS V14.01,2013-02-28 04:20:00,
2013-02-27 23:25:00,33.6,33.6,29.78,West,260,13.5,15.0,100,0.00,,,0.05,VWS V14.01,2013-02-28 04:25:00,
2013-02-27 23:30:00,33.7,33.7,29.78,WSW,258,9.0,10.5,100,0.00,,,0.05,VWS V14.01,2013-02-28 04:30:00,
2013-02-27 23:35:00,33.7,33.7,29.78,WSW,245,7.5,10.5,100,0.00,,,0.05,VWS V14.01,2013-02-28 04:35:00,
2013-02-27 23:40:00,33.7,33.7,29.78,West,269,7.5,10.5,100,0.00,,,0.05,VWS V14.01,2013-02-28 04:40:00,
2013-02-27 23:45:00,33.7,33.7,29.78,West,260,13.5,13.5,100,0.00,,,0.05,VWS V14.01,2013-02-28 04:45:00,
2013-02-27 23:50:00,33.7,33.5,29.78,West,262,6.0,7.5,99,0.00,,,0.05,VWS V14.01,2013-02-28 04:50:00,
2013-02-27 23:55:00,33.7,33.7,29.78,West,275,3.0,6.0,100,0.00,,,0.05,VWS V14.01,2013-02-28 04:55:00,